Time,TemperatureF,DewpointF,PressureIn,WindDirection,WindDirectionDegrees,WindSpeedMPH,WindSpeedGustMPH,Humidity,HourlyPrecipIn,Conditions,Clouds,dailyrainin,SoftwareType,DateUTC
2013-03-02 00:00:00,25.5,19.3,29.66,NNE,22,0.0,0.0,77,0.00,,,0.00,WUHU21623XXSP,2013-03-02 05:00:00,
2013-03-02 00:05:00,25.5,19.3,29.66,NNE,22,0.0,0.0,77,0.00,,,0.00,WUHU21623XXSP,2013-03-02 05:05:00,
2013-03-02 00:10:00,25.5,19.3,29.66,NNE,22,0.0,0.0,77,0.00,,,0.00,WUHU21623XXSP,2013-03-02 05:10:00,
2013-03-02 00:11:00,25.5,19.3,29.66,NNE,22,0.0,0.0,77,0.00,,,0.00,WUHU21623XXSP,2013-03-02 05:11:00,
2013-03-02 00:15:00,25.5,19.3,29.66,NNE,22,0.0,0.0,77,0.00,,,0.00,WUHU21623XXSP,2013-03-02 05:15:00,
2013-03-02 00:16:00,25.5,19.3,29.66,NNE,22,0.0,0.0,77,0.00,,,0.00,WUHU21623XXSP,2013-03-02 05:16:00,
2013-03-02 00:17:00,25.5,19.3,29.66,NNE,22,0.0,0.0,77,0.00,,,0.00,WUHU21623XXSP,2013-03-02 05:17:00,
2013-03-02 00:20:00,25.5,19.3,29.66,NE,45,0.0,0.0,77,0.00,,,0.00,WUHU21623XXSP,2013-03-02 05:20:00,
2013-03-02 00:21:00,25.5,19.3,29.66,NE,45,0.0,0.0,77,0.00,,,0.00,WUHU21623XXSP,2013-03-02 05:21:00,
2013-03-02 00:22:00,25.3,19.1,29.66,NNE,22,0.0,0.0,77,0.00,,,0.00,WUHU21623XXSP,2013-03-02 05:22:00,
2013-03-02 00:26:00,25.3,19.1,29.66,NE,45,0.0,0.0,77,0.00,,,0.00,WUHU21623XXSP,2013-03-02 05:26:00,
2013-03-02 00:27:00,25.3,19.1,29.66,NE,45,0.0,0.0,77,0.00,,,0.00,WUHU21623XXSP,2013-03-02 05:27:00,
2013-03-02 00:31:00,25.3,19.1,29.66,NE,45,0.0,0.0,77,0.00,,,0.00,WUHU21623XXSP,2013-03-02 05:31:00,
2013-03-02 00:32:00,25.3,19.1,29.66,NE,45,0.0,0.0,77,0.00,,,0.00,WUHU21623XXSP,2013-03-02 05:32:00,
2013-03-02 00:36:00,25.3,19.1,29.66,NE,45,0.0,0.0,77,0.00,,,0.00,WUHU21623XXSP,2013-03-02 05:36:00,
2013-03-02 00:37:00,25.3,19.1,29.66,NE,45,0.0,0.0,77,0.00,,,0.00,WUHU21623XXSP,2013-03-02 05:37:00,
2013-03-02 00:38:00,25.3,19.1,29.66,NE,45,0.0,0.0,77,0.00,,,0.00,WUHU21623XXSP,2013-03-02 05:38:00,
2013-03-02 00:41:00,25.3,19.1,29.66,NE,45,0.0,0.0,77,0.00,,,0.00,WUHU21623XXSP,2013-03-02 05:41:00,
2013-03-02 00:42:00,25.3,19.1,29.66,NE,45,0.0,0.0,77,0.00,,,0.00,WUHU21623XXSP,2013-03-02 05:42:00,
2013-03-02 00:43:00,25.2,18.9,29.66,NE,45,0.0,0.0,77,0.00,,,0.00,WUHU21623XXSP,2013-03-02 05:43:00,
2013-03-02 00:46:00,25.2,18.9,29.66,NE,45,0.0,0.0,77,0.00,,,0.00,WUHU21623XXSP,2013-03-02 05:46:00,
2013-03-02 00:47:00,25.2,18.9,29.66,NNE,22,0.0,0.0,77,0.00,,,0.00,WUHU21623XXSP,2013-03-02 05:47:00,
2013-03-02 00:48:00,25.2,18.9,29.66,NNE,22,0.0,0.0,77,0.00,,,0.00,WUHU21623XXSP,2013-03-02 05:48:00,
2013-03-02 00:52:00,25.2,18.9,29.66,NE,45,0.0,0.0,77,0.00,,,0.00,WUHU21623XXSP,2013-03-02 05:52:00,
2013-03-02 00:53:00,25.2,18.9,29.66,NE,45,0.0,0.0,77,0.00,,,0.00,WUHU21623XXSP,2013-03-02 05:53:00,
2013-03-02 00:57:00,25.0,18.4,29.66,NE,45,0.0,0.0,76,0.00,,,0.00,WUHU21623XXSP,2013-03-02 05:57:00,
2013-03-02 00:58:00,25.0,18.4,29.66,NNE,22,0.0,0.0,76,0.00,,,0.00,WUHU21623XXSP,2013-03-02 05:58:00,
2013-03-02 01:02:00,25.0,18.8,29.66,NNE,22,0.0,0.0,77,0.00,,,0.00,WUHU21623XXSP,2013-03-02 06:02:00,
2013-03-02 01:03:00,25.0,18.8,29.66,NNE,22,0.0,0.0,77,0.00,,,0.00,WUHU21623XXSP,2013-03-02 06:03:00,
2013-03-02 01:07:00,25.0,18.8,29.66,NNE,22,0.0,0.0,77,0.00,,,0.00,WUHU21623XXSP,2013-03-02 06:07:00,
2013-03-02 01:08:00,25.0,18.8,29.66,NNE,22,0.0,0.0,77,0.00,,,0.00,WUHU21623XXSP,2013-03-02 06:08:00,
2013-03-02 01:12:00,25.0,18.8,29.66,NNE,22,0.0,0.0,77,0.00,,,0.00,WUHU21623XXSP,2013-03-02 06:12:00,
2013-03-02 01:13:00,25.0,18.8,29.66,NNE,22,0.0,0.0,77,0.00,,,0.00,WUHU21623XXSP,2013-03-02 06:13:00,
2013-03-02 01:17:00,25.0,18.8,29.66,NNE,22,0.0,0.0,77,0.00,,,0.00,WUHU21623XXSP,2013-03-02 06:17:00,
2013-03-02 01:18:00,25.0,18.8,29.66,NNE,22,0.0,0.0,77,0.00,,,0.00,WUHU21623XXSP,2013-03-02 06:18:00,
2013-03-02 01:19:00,25.0,18.8,29.66,NNE,22,0.0,0.0,77,0.00,,,0.00,WUHU21623XXSP,2013-03-02 06:19:00,
2013-03-02 01:22:00,25.0,18.8,29.66,NNE,22,0.0,0.0,77,0.00,,,0.00,WUHU21623XXSP,2013-03-02 06:22:00,
2013-03-02 01:23:00,25.0,18.8,29.66,NNE,22,0.0,0.0,77,0.00,,,0.00,WUHU21623XXSP,2013-03-02 06:23:00,
2013-03-02 01:24:00,25.0,18.8,29.66,NNE,22,0.0,0.0,77,0.00,,,0.00,WUHU21623XXSP,2013-03-02 06:24:00,
2013-03-02 01:27:00,25.0,18.8,29.66,NNE,22,0.0,0.0,77,0.00,,,0.00,WUHU21623XXSP,2013-03-02 06:27:00,
2013-03-02 01:28:00,25.0,18.8,29.66,NNE,22,0.0,0.0,77,0.00,,,0.00,WUHU21623XXSP,2013-03-02 06:28:00,
2013-03-02 01:29:00,25.0,18.8,29.66,NNW,337,0.0,0.0,77,0.00,,,0.00,WUHU21623XXSP,2013-03-02 06:29:00,
2013-03-02 01:32:00,25.0,18.8,29.66,North,0,0.0,0.0,77,0.00,,,0.00,WUHU21623XXSP,2013-03-02 06:32:00,
2013-03-02 01:33:00,25.0,18.8,29.66,North,0,0.0,0.0,77,0.00,,,0.00,WUHU21623XXSP,2013-03-02 06:33:00,
2013-03-02 01:34:00,25.0,18.8,29.66,North,0,0.0,0.0,77,0.00,,,0.00,WUHU21623XXSP,2013-03-02 06:34:00,
2013-03-02 01:38:00,25.0,18.8,29.66,NW,315,0.0,0.0,77,0.00,,,0.00,WUHU21623XXSP,2013-03-02 06:38:00,
2013-03-02 01:39:00,25.2,18.9,29.66,NNW,337,0.0,0.0,77,0.00,,,0.00,WUHU21623XXSP,2013-03-02 06:39:00,
2013-03-02 01:43:00,25.2,18.9,29.65,NNW,337,0.0,0.0,77,0.00,,,0.00,WUHU21623XXSP,2013-03-02 06:43:00,
2013-03-02 01:44:00,25.2,18.9,29.65,NNW,337,0.0,0.0,77,0.00,,,0.00,WUHU21623XXSP,2013-03-02 06:44:00,
2013-03-02 01:48:00,25.2,19.3,29.65,NNW,337,0.0,0.0,78,0.00,,,0.00,WUHU21623XXSP,2013-03-02 06:48:00,
2013-03-02 01:49:00,25.2,19.3,29.65,NW,315,0.0,0.0,78,0.00,,,0.00,WUHU21623XXSP,2013-03-02 06:49:00,
2013-03-02 01:53:00,25.2,19.3,29.65,NW,315,0.0,0.0,78,0.00,,,0.00,WUHU21623XXSP,2013-03-02 06:53:00,
2013-03-02 01:55:00,25.2,19.3,29.65,North,0,0.0,0.0,78,0.00,,,0.00,WUHU21623XXSP,2013-03-02 06:55:00,
2013-03-02 01:58:00,25.2,19.3,29.65,NNW,337,0.0,0.0,78,0.00,,,0.00,WUHU21623XXSP,2013-03-02 06:58:00,
2013-03-02 02:00:00,25.2,19.3,29.65,NNW,337,0.0,0.0,78,0.00,,,0.00,WUHU21623XXSP,2013-03-02 07:00:00,
2013-03-02 02:03:00,25.2,19.3,29.65,NNW,337,0.0,0.0,78,0.00,,,0.00,WUHU21623XXSP,2013-03-02 07:03:00,
2013-03-02 02:05:00,25.2,19.3,29.65,NNW,337,0.0,0.0,78,0.00,,,0.00,WUHU21623XXSP,2013-03-02 07:05:00,
2013-03-02 02:08:00,25.2,19.3,29.65,NNW,337,0.0,0.0,78,0.00,,,0.00,WUHU21623XXSP,2013-03-02 07:08:00,
2013-03-02 02:10:00,25.2,19.3,29.65,NNW,337,0.0,0.0,78,0.00,,,0.00,WUHU21623XXSP,2013-03-02 07:10:00,
2013-03-02 02:13:00,25.2,19.3,29.65,NW,315,0.0,0.0,78,0.00,,,0.00,WUHU21623XXSP,2013-03-02 07:13:00,
2013-03-02 02:14:00,25.2,19.3,29.65,NW,315,0.0,0.0,78,0.00,,,0.00,WUHU21623XXSP,2013-03-02 07:14:00,
2013-03-02 02:15:00,25.2,19.3,29.65,North,0,0.0,0.0,78,0.00,,,0.00,WUHU21623XXSP,2013-03-02 07:15:00,
2013-03-02 02:18:00,25.3,19.3,29.65,North,0,0.0,0.0,78,0.00,,,0.00,WUHU21623XXSP,2013-03-02 07:18:00,
2013-03-02 02:19:00,25.3,19.3,29.65,North,0,0.0,0.0,78,0.00,,,0.00,WUHU21623XXSP,2013-03-02 07:19:00,
2013-03-02 02:20:00,25.3,19.4,29.65,NNE,22,0.0,0.0,78,0.00,,,0.00,WUHU21623XXSP,2013-03-02 07:20:00,
2013-03-02 02:21:00,25.3,19.4,29.65,NNE,22,0.0,0.0,78,0.00,,,0.00,WUHU21623XXSP,2013-03-02 07:21:00,
2013-03-02 02:23:00,25.3,19.4,29.65,NE,45,0.0,0.0,78,0.00,,,0.00,WUHU21623XXSP,2013-03-02 07:23:00,
2013-03-02 02:24:00,25.3,19.4,29.65,NE,45,0.0,0.0,78,0.00,,,0.00,WUHU21623XXSP,2013-03-02 07:24:00,
2013-03-02 02:25:00,25.3,19.4,29.65,NE,45,0.0,0.0,78,0.00,,,0.00,WUHU21623XXSP,2013-03-02 07:25:00,
2013-03-02 02:26:00,25.3,19.4,29.65,North,0,0.0,0.0,78,0.00,,,0.00,WUHU21623XXSP,2013-03-02 07:26:00,
2013-03-02 02:28:00,25.3,19.1,29.65,North,0,0.0,0.0,77,0.00,,,0.00,WUHU21623XXSP,2013-03-02 07:28:00,
2013-03-02 02:29:00,25.3,19.1,29.65,North,0,0.0,0.0,77,0.00,,,0.00,WUHU21623XXSP,2013-03-02 07:29:00,
2013-03-02 02:30:00,25.3,19.1,29.65,North,0,0.0,0.0,77,0.00,,,0.00,WUHU21623XXSP,2013-03-02 07:30:00,
2013-03-02 02:31:00,25.3,19.1,29.65,North,0,0.0,0.0,77,0.00,,,0.00,WUHU21623XXSP,2013-03-02 07:31:00,
2013-03-02 02:33:00,25.5,19.3,29.65,NNW,337,0.0,0.0,77,0.00,,,0.00,WUHU21623XXSP,2013-03-02 07:33:00,
2013-03-02 02:35:00,25.3,19.1,29.65,North,0,0.0,0.0,77,0.00,,,0.00,WUHU21623XXSP,2013-03-02 07:35:00,
2013-03-02 02:36:00,25.5,19.3,29.64,NNW,337,0.0,0.0,77,0.00,,,0.00,WUHU21623XXSP,2013-03-02 07:36:00,
2013-03-02 02:39:00,25.3,19.1,29.65,NNW,337,0.0,0.0,77,0.00,,,0.00,WUHU21623XXSP,2013-03-02 07:39:00,
2013-03-02 02:40:00,25.3,19.1,29.65,NNW,337,0.0,0.0,77,0.00,,,0.00,WUHU21623XXSP,2013-03-02 07:40:00,
2013-03-02 02:41:00,25.3,19.4,29.64,NNW,337,0.0,0.0,78,0.00,,,0.00,WUHU21623XXSP,2013-03-02 07:41:00,
2013-03-02 02:42:00,25.3,19.4,29.64,NNW,337,0.0,0.0,78,0.00,,,0.00,WUHU21623XXSP,2013-03-02 07:42:00,
2013-03-02 02:44:00,25.5,19.6,29.64,NNW,337,0.0,0.0,78,0.00,,,0.00,WUHU21623XXSP,2013-03-02 07:44:00,
2013-03-02 02:45:00,25.3,19.4,29.64,North,0,0.0,0.0,78,0.00,,,0.00,WUHU21623XXSP,2013-03-02 07:45:00,
2013-03-02 02:46:00,25.3,19.4,29.64,North,0,0.0,0.0,78,0.00,,,0.00,WUHU21623XXSP,2013-03-02 07:46:00,
2013-03-02 02:47:00,25.3,19.4,29.64,NNW,337,0.0,0.0,78,0.00,,,0.00,WUHU21623XXSP,2013-03-02 07:47:00,
2013-03-02 02:49:00,25.3,19.4,29.64,NNW,337,0.0,0.0,78,0.00,,,0.00,WUHU21623XXSP,2013-03-02 07:49:00,
2013-03-02 02:50:00,25.3,19.4,29.64,North,0,0.0,0.0,78,0.00,,,0.00,WUHU21623XXSP,2013-03-02 07:50:00,
2013-03-02 02:51:00,25.5,19.6,29.64,NNE,22,0.0,0.0,78,0.00,,,0.00,WUHU21623XXSP,2013-03-02 07:51:00,
2013-03-02 02:52:00,25.5,19.6,29.64,NNE,22,0.0,0.0,78,0.00,,,0.00,WUHU21623XXSP,2013-03-02 07:52:00,
2013-03-02 02:54:00,25.5,19.6,29.64,NNE,22,0.0,0.0,78,0.00,,,0.00,WUHU21623XXSP,2013-03-02 07:54:00,
2013-03-02 02:55:00,25.3,19.4,29.64,NNW,337,0.0,0.0,78,0.00,,,0.00,WUHU21623XXSP,2013-03-02 07:55:00,
2013-03-02 02:56:00,25.3,19.4,29.64,NNW,337,0.0,0.0,78,0.00,,,0.00,WUHU21623XXSP,2013-03-02 07:56:00,
2013-03-02 02:57:00,25.3,19.4,29.64,NNW,337,0.0,0.0,78,0.00,,,0.00,WUHU21623XXSP,2013-03-02 07:57:00,
2013-03-02 02:59:00,25.3,19.4,29.64,North,0,0.0,0.0,78,0.00,,,0.00,WUHU21623XXSP,2013-03-02 07:59:00,
2013-03-02 03:00:00,25.5,19.4,29.64,North,0,0.0,0.0,78,0.00,,,0.00,WUHU21623XXSP,2013-03-02 08:00:00,
2013-03-02 03:01:00,25.5,19.4,29.64,North,0,0.0,0.0,78,0.00,,,0.00,WUHU21623XXSP,2013-03-02 08:01:00,
2013-03-02 03:02:00,25.3,19.4,29.64,NNW,337,0.0,0.0,78,0.00,,,0.00,WUHU21623XXSP,2013-03-02 08:02:00,
2013-03-02 03:04:00,25.5,19.6,29.64,NNE,22,0.0,0.0,78,0.00,,,0.00,WUHU21623XXSP,2013-03-02 08:04:00,
2013-03-02 03:06:00,25.5,19.6,29.64,NNE,22,0.0,0.0,78,0.00,,,0.00,WUHU21623XXSP,2013-03-02 08:06:00,
2013-03-02 03:07:00,25.5,19.6,29.64,NNE,22,0.0,0.0,78,0.00,,,0.00,WUHU21623XXSP,2013-03-02 08:07:00,
2013-03-02 03:10:00,25.5,19.6,29.64,North,0,0.0,0.0,78,0.00,,,0.00,WUHU21623XXSP,2013-03-02 08:10:00,
2013-03-02 03:11:00,25.5,19.3,29.64,NNW,337,0.0,0.0,77,0.00,,,0.00,WUHU21623XXSP,2013-03-02 08:11:00,
2013-03-02 03:12:00,25.5,19.3,29.64,NNW,337,0.0,0.0,77,0.00,,,0.00,WUHU21623XXSP,2013-03-02 08:12:00,
2013-03-02 03:15:00,25.5,19.3,29.64,NNE,22,0.0,0.0,77,0.00,,,0.00,WUHU21623XXSP,2013-03-02 08:15:00,
2013-03-02 03:16:00,25.5,19.3,29.64,NNE,22,0.0,0.0,77,0.00,,,0.00,WUHU21623XXSP,2013-03-02 08:16:00,
2013-03-02 03:17:00,25.5,19.3,29.64,NNW,337,0.0,0.0,77,0.00,,,0.00,WUHU21623XXSP,2013-03-02 08:17:00,
2013-03-02 03:20:00,25.5,19.3,29.64,North,0,0.0,0.0,77,0.00,,,0.00,WUHU21623XXSP,2013-03-02 08:20:00,
2013-03-02 03:21:00,25.5,19.3,29.64,North,0,0.0,0.0,77,0.00,,,0.00,WUHU21623XXSP,2013-03-02 08:21:00,
2013-03-02 03:23:00,25.5,19.3,29.64,NNE,22,0.0,0.0,77,0.00,,,0.00,WUHU21623XXSP,2013-03-02 08:23:00,
2013-03-02 03:25:00,25.5,19.3,29.64,NNE,22,0.0,0.0,77,0.00,,,0.00,WUHU21623XXSP,2013-03-02 08:25:00,
2013-03-02 03:26:00,25.5,19.3,29.63,North,0,0.0,0.0,77,0.00,,,0.00,WUHU21623XXSP,2013-03-02 08:26:00,
2013-03-02 03:28:00,25.5,19.3,29.64,North,0,0.0,0.0,77,0.00,,,0.00,WUHU21623XXSP,2013-03-02 08:28:00,
2013-03-02 03:30:00,25.5,19.3,29.64,NNE,22,0.0,0.0,77,0.00,,,0.00,WUHU21623XXSP,2013-03-02 08:30:00,
2013-03-02 03:31:00,25.5,19.3,29.64,NNE,22,0.0,0.0,77,0.00,,,0.00,WUHU21623XXSP,2013-03-02 08:31:00,
2013-03-02 03:32:00,25.5,19.3,29.64,NNE,22,0.0,0.0,77,0.00,,,0.00,WUHU21623XXSP,2013-03-02 08:32:00,
2013-03-02 03:33:00,25.5,19.3,29.64,NNE,22,0.0,0.0,77,0.00,,,0.00,WUHU21623XXSP,2013-03-02 08:33:00,
2013-03-02 03:35:00,25.5,19.3,29.64,NNE,22,0.0,0.0,77,0.00,,,0.00,WUHU21623XXSP,2013-03-02 08:35:00,
2013-03-02 03:36:00,25.3,19.1,29.63,North,0,0.0,0.0,77,0.00,,,0.00,WUHU21623XXSP,2013-03-02 08:36:00,
2013-03-02 03:37:00,25.3,19.1,29.63,North,0,0.0,0.0,77,0.00,,,0.00,WUHU21623XXSP,2013-03-02 08:37:00,
2013-03-02 03:38:00,25.3,19.1,29.63,North,0,0.0,0.0,77,0.00,,,0.00,WUHU21623XXSP,2013-03-02 08:38:00,
2013-03-02 03:41:00,25.3,19.1,29.63,NNW,337,0.0,0.0,77,0.00,,,0.00,WUHU21623XXSP,2013-03-02 08:41:00,
2013-03-02 03:42:00,25.3,19.1,29.63,NNW,337,0.0,0.0,77,0.00,,,0.00,WUHU21623XXSP,2013-03-02 08:42:00,
2013-03-02 03:43:00,25.5,19.3,29.64,NNE,22,0.0,0.0,77,0.00,,,0.00,WUHU21623XXSP,2013-03-02 08:43:00,
2013-03-02 03:46:00,25.5,19.6,29.64,NNW,337,0.0,0.0,78,0.00,,,0.00,WUHU21623XXSP,2013-03-02 08:46:00,
2013-03-02 03:47:00,25.5,19.6,29.64,NNW,337,0.0,0.0,78,0.00,,,0.00,WUHU21623XXSP,2013-03-02 08:47:00,
2013-03-02 03:48:00,25.3,19.4,29.63,NNW,337,0.0,0.0,78,0.00,,,0.00,WUHU21623XXSP,2013-03-02 08:48:00,
2013-03-02 03:51:00,25.3,19.4,29.63,North,0,0.0,0.0,78,0.00,,,0.00,WUHU21623XXSP,2013-03-02 08:51:00,
2013-03-02 03:52:00,25.3,19.4,29.64,North,0,0.0,0.0,78,0.00,,,0.00,WUHU21623XXSP,2013-03-02 08:52:00,
2013-03-02 03:53:00,25.3,19.4,29.64,North,0,0.0,0.0,78,0.00,,,0.00,WUHU21623XXSP,2013-03-02 08:53:00,
2013-03-02 03:56:00,25.3,19.4,29.63,NNW,337,0.0,0.0,78,0.00,,,0.00,WUHU21623XXSP,2013-03-02 08:56:00,
2013-03-02 03:57:00,25.3,19.4,29.63,NNW,337,0.0,0.0,78,0.00,,,0.00,WUHU21623XXSP,2013-03-02 08:57:00,
2013-03-02 03:59:00,25.3,19.4,29.63,NNW,337,0.0,0.0,78,0.00,,,0.00,WUHU21623XXSP,2013-03-02 08:59:00,
2013-03-02 04:01:00,25.3,19.4,29.64,North,0,0.0,0.0,78,0.00,,,0.00,WUHU21623XXSP,2013-03-02 09:01:00,
2013-03-02 04:02:00,25.3,19.4,29.64,North,0,0.0,0.0,78,0.00,,,0.00,WUHU21623XXSP,2013-03-02 09:02:00,
2013-03-02 04:04:00,25.3,19.4,29.63,North,0,0.0,0.0,78,0.00,,,0.00,WUHU21623XXSP,2013-03-02 09:04:00,
2013-03-02 04:06:00,25.3,19.4,29.63,NNW,337,0.0,0.0,78,0.00,,,0.00,WUHU21623XXSP,2013-03-02 09:06:00,
2013-03-02 04:07:00,25.3,19.4,29.63,NNW,337,0.0,0.0,78,0.00,,,0.00,WUHU21623XXSP,2013-03-02 09:07:00,
2013-03-02 04:09:00,25.3,19.4,29.63,NNW,337,0.0,0.0,78,0.00,,,0.00,WUHU21623XXSP,2013-03-02 09:09:00,
2013-03-02 04:11:00,25.2,19.3,29.63,North,0,0.0,0.0,78,0.00,,,0.00,WUHU21623XXSP,2013-03-02 09:11:00,
2013-03-02 04:12:00,25.2,19.3,29.63,North,0,0.0,0.0,78,0.00,,,0.00,WUHU21623XXSP,2013-03-02 09:12:00,
2013-03-02 04:14:00,25.2,19.3,29.63,North,0,0.0,0.0,78,0.00,,,0.00,WUHU21623XXSP,2013-03-02 09:14:00,
2013-03-02 04:16:00,25.2,19.3,29.63,North,0,0.0,0.0,78,0.00,,,0.00,WUHU21623XXSP,2013-03-02 09:16:00,
2013-03-02 04:17:00,25.2,19.3,29.63,NNW,337,0.0,0.0,78,0.00,,,0.00,WUHU21623XXSP,2013-03-02 09:17:00,
2013-03-02 04:19:00,25.2,19.3,29.63,NNW,337,0.0,0.0,78,0.00,,,0.00,WUHU21623XXSP,2013-03-02 09:19:00,
2013-03-02 04:21:00,25.2,19.3,29.63,NW,315,0.0,0.0,78,0.00,,,0.00,WUHU21623XXSP,2013-03-02 09:21:00,
2013-03-02 04:22:00,25.2,19.3,29.63,NW,315,0.0,0.0,78,0.00,,,0.00,WUHU21623XXSP,2013-03-02 09:22:00,
2013-03-02 04:24:00,25.2,19.3,29.63,NW,315,0.0,0.0,78,0.00,,,0.00,WUHU21623XXSP,2013-03-02 09:24:00,
2013-03-02 04:27:00,25.2,19.3,29.63,NW,315,0.0,0.0,78,0.00,,,0.00,WUHU21623XXSP,2013-03-02 09:27:00,
2013-03-02 04:28:00,25.2,19.3,29.63,NNE,22,0.0,0.0,78,0.00,,,0.00,WUHU21623XXSP,2013-03-02 09:28:00,
2013-03-02 04:29:00,25.2,19.3,29.63,NNE,22,0.0,0.0,78,0.00,,,0.00,WUHU21623XXSP,2013-03-02 09:29:00,
2013-03-02 04:32:00,25.2,19.3,29.63,NNE,22,0.0,0.0,78,0.00,,,0.00,WUHU21623XXSP,2013-03-02 09:32:00,
2013-03-02 04:33:00,25.2,19.3,29.63,NNE,22,0.0,0.0,78,0.00,,,0.00,WUHU21623XXSP,2013-03-02 09:33:00,
2013-03-02 04:34:00,25.0,19.3,29.63,NNE,22,0.0,0.0,78,0.00,,,0.00,WUHU21623XXSP,2013-03-02 09:34:00,
2013-03-02 04:37:00,25.0,19.1,29.63,NW,315,0.0,0.0,78,0.00,,,0.00,WUHU21623XXSP,2013-03-02 09:37:00,
2013-03-02 04:38:00,25.0,19.1,29.63,NW,315,0.0,0.0,78,0.00,,,0.00,WUHU21623XXSP,2013-03-02 09:38:00,
2013-03-02 04:39:00,25.0,19.1,29.63,NW,315,0.0,0.0,78,0.00,,,0.00,WUHU21623XXSP,2013-03-02 09:39:00,
2013-03-02 04:42:00,25.0,19.1,29.63,North,0,0.0,0.0,78,0.00,,,0.00,WUHU21623XXSP,2013-03-02 09:42:00,
2013-03-02 04:43:00,25.0,19.1,29.63,North,0,0.0,0.0,78,0.00,,,0.00,WUHU21623XXSP,2013-03-02 09:43:00,
2013-03-02 04:44:00,25.0,19.1,29.63,North,0,0.0,0.0,78,0.00,,,0.00,WUHU21623XXSP,2013-03-02 09:44:00,
2013-03-02 04:47:00,25.0,19.1,29.63,NNW,337,0.0,0.0,78,0.00,,,0.00,WUHU21623XXSP,2013-03-02 09:47:00,
2013-03-02 04:48:00,25.0,19.1,29.63,NNW,337,0.0,0.0,78,0.00,,,0.00,WUHU21623XXSP,2013-03-02 09:48:00,
2013-03-02 04:49:00,25.0,19.1,29.63,NW,315,0.0,0.0,78,0.00,,,0.00,WUHU21623XXSP,2013-03-02 09:49:00,
2013-03-02 04:53:00,25.0,19.1,29.63,NNW,337,0.0,0.0,78,0.00,,,0.00,WUHU21623XXSP,2013-03-02 09:53:00,
2013-03-02 04:54:00,25.0,19.1,29.63,North,0,0.0,0.0,78,0.00,,,0.00,WUHU21623XXSP,2013-03-02 09:54:00,
2013-03-02 04:58:00,25.0,19.1,29.63,NNW,337,0.0,0.0,78,0.00,,,0.00,WUHU21623XXSP,2013-03-02 09:58:00,
2013-03-02 04:59:00,25.0,19.1,29.63,NNW,337,0.0,0.0,78,0.00,,,0.00,WUHU21623XXSP,2013-03-02 09:59:00,
2013-03-02 05:03:00,25.0,19.1,29.63,NNW,337,0.0,0.0,78,0.00,,,0.00,WUHU21623XXSP,2013-03-02 10:03:00,
2013-03-02 05:05:00,25.0,19.1,29.63,NNW,337,0.0,0.0,78,0.00,,,0.00,WUHU21623XXSP,2013-03-02 10:05:00,
2013-03-02 05:09:00,25.0,19.1,29.63,NNW,337,0.0,0.0,78,0.00,,,0.00,WUHU21623XXSP,2013-03-02 10:09:00,
2013-03-02 05:10:00,25.0,19.1,29.63,NNW,337,0.0,0.0,78,0.00,,,0.00,WUHU21623XXSP,2013-03-02 10:10:00,
2013-03-02 05:14:00,25.0,19.1,29.63,NW,315,0.0,0.0,78,0.00,,,0.00,WUHU21623XXSP,2013-03-02 10:14:00,
2013-03-02 05:15:00,25.0,19.1,29.63,NW,315,0.0,0.0,78,0.00,,,0.00,WUHU21623XXSP,2013-03-02 10:15:00,
2013-03-02 05:19:00,25.0,19.1,29.63,North,0,0.0,0.0,78,0.00,,,0.00,WUHU21623XXSP,2013-03-02 10:19:00,
2013-03-02 05:20:00,25.0,19.1,29.63,North,0,0.0,0.0,78,0.00,,,0.00,WUHU21623XXSP,2013-03-02 10:20:00,
2013-03-02 05:25:00,25.0,19.1,29.63,NW,315,0.0,0.0,78,0.00,,,0.00,WUHU21623XXSP,2013-03-02 10:25:00,
2013-03-02 05:30:00,25.0,19.1,29.63,NNW,337,0.0,0.0,78,0.00,,,0.00,WUHU21623XXSP,2013-03-02 10:30:00,
2013-03-02 05:31:00,25.0,19.1,29.63,NNW,337,0.0,0.0,78,0.00,,,0.00,WUHU21623XXSP,2013-03-02 10:31:00,
2013-03-02 05:35:00,25.0,19.1,29.63,NNW,337,0.0,0.0,78,0.00,,,0.00,WUHU21623XXSP,2013-03-02 10:35:00,
2013-03-02 05:36:00,25.0,19.1,29.63,NNW,337,0.0,0.0,78,0.00,,,0.00,WUHU21623XXSP,2013-03-02 10:36:00,
2013-03-02 05:40:00,25.0,19.1,29.63,NNW,337,0.0,0.0,78,0.00,,,0.00,WUHU21623XXSP,2013-03-02 10:40:00,
2013-03-02 05:41:00,25.0,19.1,29.63,NNW,337,0.0,0.0,78,0.00,,,0.00,WUHU21623XXSP,2013-03-02 10:41:00,
2013-03-02 05:42:00,25.0,19.1,29.63,NNW,337,0.0,0.0,78,0.00,,,0.00,WUHU21623XXSP,2013-03-02 10:42:00,
2013-03-02 05:45:00,25.0,19.1,29.63,North,0,0.0,0.0,78,0.00,,,0.00,WUHU21623XXSP,2013-03-02 10:45:00,
2013-03-02 05:46:00,25.0,19.1,29.63,North,0,0.0,0.0,78,0.00,,,0.00,WUHU21623XXSP,2013-03-02 10:46:00,
2013-03-02 05:47:00,25.0,19.1,29.63,NNW,337,0.0,0.0,78,0.00,,,0.00,WUHU21623XXSP,2013-03-02 10:47:00,
2013-03-02 05:51:00,25.0,19.1,29.63,NNW,337,0.0,0.0,78,0.00,,,0.00,WUHU21623XXSP,2013-03-02 10:51:00,
2013-03-02 05:52:00,25.0,19.1,29.63,NNW,337,0.0,0.0,78,0.00,,,0.00,WUHU21623XXSP,2013-03-02 10:52:00,
2013-03-02 05:56:00,24.8,18.9,29.63,North,0,0.0,0.0,78,0.00,,,0.00,WUHU21623XXSP,2013-03-02 10:56:00,
2013-03-02 05:57:00,24.8,18.9,29.63,North,0,0.0,0.0,78,0.00,,,0.00,WUHU21623XXSP,2013-03-02 10:57:00,
2013-03-02 06:01:00,24.8,18.9,29.63,NNW,337,0.0,0.0,78,0.00,,,0.00,WUHU21623XXSP,2013-03-02 11:01:00,
2013-03-02 06:02:00,25.0,19.1,29.63,NNW,337,0.0,0.0,78,0.00,,,0.00,WUHU21623XXSP,2013-03-02 11:02:00,
2013-03-02 06:06:00,25.0,19.1,29.63,NNE,22,0.0,0.0,78,0.00,,,0.00,WUHU21623XXSP,2013-03-02 11:06:00,
2013-03-02 06:07:00,25.0,19.1,29.63,NNE,22,0.0,0.0,78,0.00,,,0.00,WUHU21623XXSP,2013-03-02 11:07:00,
2013-03-02 06:11:00,25.0,19.1,29.63,NNE,22,0.0,0.0,78,0.00,,,0.00,WUHU21623XXSP,2013-03-02 11:11:00,
2013-03-02 06:12:00,25.0,19.1,29.63,NNE,22,0.0,0.0,78,0.00,,,0.00,WUHU21623XXSP,2013-03-02 11:12:00,
2013-03-02 06:13:00,25.0,19.1,29.63,NNE,22,0.0,0.0,78,0.00,,,0.00,WUHU21623XXSP,2013-03-02 11:13:00,
2013-03-02 06:17:00,25.0,19.1,29.63,NNE,22,0.0,0.0,78,0.00,,,0.00,WUHU21623XXSP,2013-03-02 11:17:00,
2013-03-02 06:18:00,25.0,19.1,29.63,NNE,22,0.0,0.0,78,0.00,,,0.00,WUHU21623XXSP,2013-03-02 11:18:00,
2013-03-02 06:22:00,25.0,19.1,29.63,North,0,0.0,0.0,78,0.00,,,0.00,WUHU21623XXSP,2013-03-02 11:22:00,
2013-03-02 06:23:00,25.0,19.1,29.63,North,0,0.0,0.0,78,0.00,,,0.00,WUHU21623XXSP,2013-03-02 11:23:00,
2013-03-02 06:27:00,25.0,19.1,29.63,NNE,22,0.0,0.0,78,0.00,,,0.00,WUHU21623XXSP,2013-03-02 11:27:00,
2013-03-02 06:28:00,25.0,19.1,29.63,NNW,337,0.0,0.0,78,0.00,,,0.00,WUHU21623XXSP,2013-03-02 11:28:00,
2013-03-02 06:32:00,25.0,19.1,29.64,North,0,0.0,0.0,78,0.00,,,0.00,WUHU21623XXSP,2013-03-02 11:32:00,
2013-03-02 06:33:00,25.0,19.1,29.64,North,0,0.0,0.0,78,0.00,,,0.00,WUHU21623XXSP,2013-03-02 11:33:00,
2013-03-02 06:37:00,25.0,19.1,29.63,NNW,337,0.0,0.0,78,0.00,,,0.00,WUHU21623XXSP,2013-03-02 11:37:00,
2013-03-02 06:38:00,25.0,19.1,29.63,NNW,337,0.0,0.0,78,0.00,,,0.00,WUHU21623XXSP,2013-03-02 11:38:00,
2013-03-02 06:43:00,24.8,18.9,29.64,NNE,22,0.0,0.0,78,0.00,,,0.00,WUHU21623XXSP,2013-03-02 11:43:00,
2013-03-02 06:48:00,24.6,18.8,29.63,NNE,22,0.0,0.0,78,0.00,,,0.00,WUHU21623XXSP,2013-03-02 11:48:00,
2013-03-02 06:53:00,24.6,18.8,29.63,NNW,337,0.0,0.0,78,0.00,,,0.00,WUHU21623XXSP,2013-03-02 11:53:00,
2013-03-02 06:54:00,24.6,18.8,29.63,NNE,22,0.0,0.0,78,0.00,,,0.00,WUHU21623XXSP,2013-03-02 11:54:00,
2013-03-02 06:58:00,24.6,18.8,29.63,NW,315,0.0,0.0,78,0.00,,,0.00,WUHU21623XXSP,2013-03-02 11:58:00,
2013-03-02 06:59:00,24.6,18.8,29.63,NW,315,0.0,0.0,78,0.00,,,0.00,WUHU21623XXSP,2013-03-02 11:59:00,
2013-03-02 07:03:00,24.6,18.8,29.63,NNE,22,0.0,0.0,78,0.00,,,0.00,WUHU21623XXSP,2013-03-02 12:03:00,
2013-03-02 07:04:00,24.6,18.8,29.63,NNE,22,0.0,0.0,78,0.00,,,0.00,WUHU21623XXSP,2013-03-02 12:04:00,
2013-03-02 07:09:00,24.6,18.8,29.63,NNW,337,0.0,0.0,79,0.00,,,0.00,WUHU21623XXSP,2013-03-02 12:09:00,
2013-03-02 07:14:00,24.6,19.1,29.63,NNE,22,0.0,0.0,79,0.00,,,0.00,WUHU21623XXSP,2013-03-02 12:14:00,
2013-03-02 07:19:00,24.6,19.1,29.64,North,0,0.0,0.0,79,0.00,,,0.00,WUHU21623XXSP,2013-03-02 12:19:00,
2013-03-02 07:20:00,24.6,19.1,29.64,North,0,0.0,0.0,79,0.00,,,0.00,WUHU21623XXSP,2013-03-02 12:20:00,
2013-03-02 07:24:00,24.6,19.1,29.64,NNW,337,0.0,0.0,79,0.00,,,0.00,WUHU21623XXSP,2013-03-02 12:24:00,
2013-03-02 07:25:00,24.6,19.1,29.64,NNW,337,0.0,0.0,79,0.00,,,0.00,WUHU21623XXSP,2013-03-02 12:25:00,
2013-03-02 07:29:00,24.6,19.1,29.64,NW,315,0.0,0.0,79,0.00,,,0.00,WUHU21623XXSP,2013-03-02 12:29:00,
2013-03-02 07:30:00,24.6,19.1,29.64,NNW,337,0.0,0.0,79,0.00,,,0.00,WUHU21623XXSP,2013-03-02 12:30:00,
2013-03-02 07:31:00,24.6,19.1,29.64,NNW,337,0.0,0.0,79,0.00,,,0.00,WUHU21623XXSP,2013-03-02 12:31:00,
2013-03-02 07:34:00,24.6,19.1,29.64,NNW,337,0.0,0.0,79,0.00,,,0.00,WUHU21623XXSP,2013-03-02 12:34:00,
2013-03-02 07:35:00,24.6,19.1,29.64,NNW,337,0.0,0.0,79,0.00,,,0.00,WUHU21623XXSP,2013-03-02 12:35:00,
2013-03-02 07:36:00,24.6,19.1,29.64,NNW,337,0.0,0.0,79,0.00,,,0.00,WUHU21623XXSP,2013-03-02 12:36:00,
2013-03-02 07:39:00,24.6,19.1,29.64,NNW,337,0.0,0.0,79,0.00,,,0.00,WUHU21623XXSP,2013-03-02 12:39:00,
2013-03-02 07:40:00,24.6,19.1,29.64,NNW,337,0.0,0.0,79,0.00,,,0.00,WUHU21623XXSP,2013-03-02 12:40:00,
2013-03-02 07:41:00,24.6,19.4,29.64,NNW,337,0.0,0.0,80,0.00,,,0.00,WUHU21623XXSP,2013-03-02 12:41:00,
2013-03-02 07:44:00,24.6,19.1,29.64,NNW,337,0.0,0.0,79,0.00,,,0.00,WUHU21623XXSP,2013-03-02 12:44:00,
2013-03-02 07:45:00,24.6,19.1,29.64,NNW,337,0.0,0.0,79,0.00,,,0.00,WUHU21623XXSP,2013-03-02 12:45:00,
2013-03-02 07:46:00,24.6,19.1,29.64,NNW,337,0.0,0.0,79,0.00,,,0.00,WUHU21623XXSP,2013-03-02 12:46:00,
2013-03-02 07:50:00,24.6,19.4,29.64,NNW,337,0.0,0.0,80,0.00,,,0.00,WUHU21623XXSP,2013-03-02 12:50:00,
2013-03-02 07:51:00,24.6,19.4,29.64,NNW,337,0.0,0.0,80,0.00,,,0.00,WUHU21623XXSP,2013-03-02 12:51:00,
2013-03-02 07:55:00,24.6,19.4,29.64,NNE,22,0.0,0.0,80,0.00,,,0.00,WUHU21623XXSP,2013-03-02 12:55:00,
2013-03-02 07:56:00,24.6,19.4,29.64,NNE,22,0.0,0.0,79,0.00,,,0.00,WUHU21623XXSP,2013-03-02 12:56:00,
2013-03-02 08:00:00,24.6,19.4,29.64,NW,315,0.0,0.0,80,0.00,,,0.00,WUHU21623XXSP,2013-03-02 13:00:00,
2013-03-02 08:01:00,24.6,19.4,29.64,NW,315,0.0,0.0,80,0.00,,,0.00,WUHU21623XXSP,2013-03-02 13:01:00,
2013-03-02 08:05:00,24.6,19.4,29.64,NNW,337,0.0,0.0,80,0.00,,,0.00,WUHU21623XXSP,2013-03-02 13:05:00,
2013-03-02 08:06:00,24.6,19.4,29.64,NNW,337,0.0,0.0,80,0.00,,,0.00,WUHU21623XXSP,2013-03-02 13:06:00,
2013-03-02 08:10:00,24.6,19.4,29.65,North,0,0.0,0.0,80,0.00,,,0.00,WUHU21623XXSP,2013-03-02 13:10:00,
2013-03-02 08:11:00,24.6,19.4,29.65,North,0,0.0,0.0,80,0.00,,,0.00,WUHU21623XXSP,2013-03-02 13:11:00,
2013-03-02 08:15:00,24.6,19.7,29.64,NNW,337,0.0,0.0,81,0.00,,,0.00,WUHU21623XXSP,2013-03-02 13:15:00,
2013-03-02 08:16:00,24.6,19.7,29.64,NNW,337,0.0,0.0,81,0.00,,,0.00,WUHU21623XXSP,2013-03-02 13:16:00,
2013-03-02 08:20:00,24.6,19.7,29.65,NW,315,0.0,0.0,81,0.00,,,0.00,WUHU21623XXSP,2013-03-02 13:20:00,
2013-03-02 08:21:00,24.6,19.7,29.65,NW,315,0.0,0.0,81,0.00,,,0.00,WUHU21623XXSP,2013-03-02 13:21:00,
2013-03-02 08:25:00,24.6,19.4,29.65,NW,315,0.0,0.0,80,0.00,,,0.00,WUHU21623XXSP,2013-03-02 13:25:00,
2013-03-02 08:26:00,24.6,19.4,29.65,NW,315,0.0,0.0,80,0.00,,,0.00,WUHU21623XXSP,2013-03-02 13:26:00,
2013-03-02 08:27:00,24.6,19.4,29.65,NW,315,0.0,0.0,80,0.00,,,0.00,WUHU21623XXSP,2013-03-02 13:27:00,
2013-03-02 08:31:00,24.6,19.4,29.65,NW,315,0.0,0.0,81,0.00,,,0.00,WUHU21623XXSP,2013-03-02 13:31:00,
2013-03-02 08:32:00,24.6,19.7,29.65,NW,315,0.0,0.0,81,0.00,,,0.00,WUHU21623XXSP,2013-03-02 13:32:00,
2013-03-02 08:36:00,24.6,19.7,29.65,NW,315,0.0,0.0,81,0.00,,,0.00,WUHU21623XXSP,2013-03-02 13:36:00,
2013-03-02 08:37:00,24.6,19.7,29.65,NW,315,0.0,0.0,81,0.00,,,0.00,WUHU21623XXSP,2013-03-02 13:37:00,
2013-03-02 08:41:00,24.6,19.7,29.65,NNW,337,0.0,0.0,81,0.00,,,0.00,WUHU21623XXSP,2013-03-02 13:41:00,
2013-03-02 08:42:00,24.6,19.7,29.65,NNW,337,0.0,0.0,81,0.00,,,0.00,WUHU21623XXSP,2013-03-02 13:42:00,
2013-03-02 08:46:00,24.6,19.7,29.65,NNW,337,0.0,0.0,80,0.00,,,0.00,WUHU21623XXSP,2013-03-02 13:46:00,
2013-03-02 08:47:00,24.6,19.7,29.65,NW,315,0.0,0.0,81,0.00,,,0.00,WUHU21623XXSP,2013-03-02 13:47:00,
2013-03-02 08:51:00,24.6,19.7,29.65,NW,315,0.0,0.0,81,0.00,,,0.00,WUHU21623XXSP,2013-03-02 13:51:00,
2013-03-02 08:52:00,24.6,19.7,29.65,NW,315,0.0,0.0,81,0.00,,,0.00,WUHU21623XXSP,2013-03-02 13:52:00,
2013-03-02 08:56:00,24.6,19.7,29.65,NW,315,0.0,0.0,81,0.00,,,0.00,WUHU21623XXSP,2013-03-02 13:56:00,
2013-03-02 08:57:00,24.6,19.7,29.65,NW,315,0.0,0.0,81,0.00,,,0.00,WUHU21623XXSP,2013-03-02 13:57:00,
2013-03-02 08:58:00,24.6,19.7,29.65,NW,315,0.0,0.0,81,0.00,,,0.00,WUHU21623XXSP,2013-03-02 13:58:00,
2013-03-02 09:01:00,24.6,19.7,29.65,NW,315,0.0,0.0,81,0.00,,,0.00,WUHU21623XXSP,2013-03-02 14:01:00,
2013-03-02 09:02:00,24.6,19.7,29.65,NW,315,0.0,0.0,81,0.00,,,0.00,WUHU21623XXSP,2013-03-02 14:02:00,
2013-03-02 09:03:00,24.6,19.7,29.65,NW,315,0.0,0.0,81,0.00,,,0.00,WUHU21623XXSP,2013-03-02 14:03:00,
2013-03-02 09:06:00,24.6,19.7,29.65,NW,315,0.0,0.0,81,0.00,,,0.00,WUHU21623XXSP,2013-03-02 14:06:00,
2013-03-02 09:08:00,24.6,19.7,29.65,NW,315,0.0,0.0,81,0.00,,,0.00,WUHU21623XXSP,2013-03-02 14:08:00,
2013-03-02 09:11:00,24.8,20.0,29.65,NNW,337,0.0,0.0,81,0.00,,,0.00,WUHU21623XXSP,2013-03-02 14:11:00,
2013-03-02 09:13:00,24.8,19.9,29.65,NNW,337,0.0,0.0,80,0.00,,,0.00,WUHU21623XXSP,2013-03-02 14:13:00,
2013-03-02 09:17:00,25.0,19.7,29.64,North,0,0.0,0.0,80,0.00,,,0.00,WUHU21623XXSP,2013-03-02 14:17:00,
2013-03-02 09:18:00,25.0,19.7,29.64,NNW,337,0.0,0.0,80,0.00,,,0.00,WUHU21623XXSP,2013-03-02 14:18:00,
2013-03-02 09:19:00,25.2,19.9,29.64,NNW,337,0.0,0.0,80,0.00,,,0.00,WUHU21623XXSP,2013-03-02 14:19:00,
2013-03-02 09:22:00,25.2,19.9,29.64,NW,315,0.0,0.0,80,0.00,,,0.00,WUHU21623XXSP,2013-03-02 14:22:00,
2013-03-02 09:23:00,25.2,19.9,29.64,NNW,337,0.0,0.0,80,0.00,,,0.00,WUHU21623XXSP,2013-03-02 14:23:00,
2013-03-02 09:24:00,25.2,19.9,29.64,NNW,337,0.0,0.0,80,0.00,,,0.00,WUHU21623XXSP,2013-03-02 14:24:00,
2013-03-02 09:27:00,25.2,19.9,29.64,North,0,0.0,0.0,80,0.00,,,0.00,WUHU21623XXSP,2013-03-02 14:27:00,
2013-03-02 09:28:00,25.2,19.9,29.64,North,0,0.0,0.0,80,0.00,,,0.00,WUHU21623XXSP,2013-03-02 14:28:00,
2013-03-02 09:29:00,25.2,19.9,29.64,North,0,0.0,0.0,80,0.00,,,0.00,WUHU21623XXSP,2013-03-02 14:29:00,
2013-03-02 09:32:00,25.3,19.7,29.64,NNW,337,0.0,0.0,79,0.00,,,0.00,WUHU21623XXSP,2013-03-02 14:32:00,
2013-03-02 09:33:00,25.3,19.7,29.64,NNW,337,0.0,0.0,79,0.00,,,0.00,WUHU21623XXSP,2013-03-02 14:33:00,
2013-03-02 09:34:00,25.3,19.7,29.64,NNW,337,0.0,0.0,79,0.00,,,0.00,WUHU21623XXSP,2013-03-02 14:34:00,
2013-03-02 09:37:00,25.5,19.9,29.64,NNW,337,0.0,0.0,79,0.00,,,0.00,WUHU21623XXSP,2013-03-02 14:37:00,
2013-03-02 09:38:00,25.5,19.9,29.64,NNW,337,0.0,0.0,79,0.00,,,0.00,WUHU21623XXSP,2013-03-02 14:38:00,
2013-03-02 09:39:00,25.5,19.9,29.64,NNW,337,0.0,0.0,79,0.00,,,0.00,WUHU21623XXSP,2013-03-02 14:39:00,
2013-03-02 09:42:00,25.5,19.9,29.64,NW,315,0.0,0.0,79,0.00,,,0.00,WUHU21623XXSP,2013-03-02 14:42:00,
2013-03-02 09:43:00,25.5,19.9,29.64,NW,315,0.0,0.0,79,0.00,,,0.00,WUHU21623XXSP,2013-03-02 14:43:00,
2013-03-02 09:44:00,25.5,19.9,29.64,NW,315,0.0,0.0,79,0.00,,,0.00,WUHU21623XXSP,2013-03-02 14:44:00,
2013-03-02 09:47:00,25.5,19.9,29.64,NW,315,0.0,0.0,79,0.00,,,0.00,WUHU21623XXSP,2013-03-02 14:47:00,
2013-03-02 09:48:00,25.5,19.9,29.64,NW,315,0.0,0.0,79,0.00,,,0.00,WUHU21623XXSP,2013-03-02 14:48:00,
2013-03-02 09:49:00,25.5,19.9,29.64,NW,315,0.0,0.0,79,0.00,,,0.00,WUHU21623XXSP,2013-03-02 14:49:00,
2013-03-02 09:52:00,25.5,19.9,29.64,NNW,337,0.0,0.0,79,0.00,,,0.00,WUHU21623XXSP,2013-03-02 14:52:00,
2013-03-02 09:54:00,25.5,19.9,29.64,NNW,337,0.0,0.0,78,0.00,,,0.00,WUHU21623XXSP,2013-03-02 14:54:00,
2013-03-02 09:55:00,25.5,19.9,29.64,NNW,337,0.0,0.0,78,0.00,,,0.00,WUHU21623XXSP,2013-03-02 14:55:00,
2013-03-02 09:57:00,25.5,19.6,29.64,NNW,337,0.0,0.0,78,0.00,,,0.00,WUHU21623XXSP,2013-03-02 14:57:00,
2013-03-02 09:59:00,25.5,19.6,29.64,NNW,337,0.0,0.0,78,0.00,,,0.00,WUHU21623XXSP,2013-03-02 14:59:00,
2013-03-02 10:00:00,25.5,19.6,29.64,NNW,337,0.0,0.0,78,0.00,,,0.00,WUHU21623XXSP,2013-03-02 15:00:00,
2013-03-02 10:02:00,25.5,19.6,29.65,North,0,0.0,0.0,78,0.00,,,0.00,WUHU21623XXSP,2013-03-02 15:02:00,
2013-03-02 10:04:00,25.7,20.1,29.64,NNW,337,0.0,0.0,79,0.00,,,0.00,WUHU21623XXSP,2013-03-02 15:04:00,
2013-03-02 10:05:00,25.7,20.1,29.64,NNW,337,0.0,0.0,79,0.00,,,0.00,WUHU21623XXSP,2013-03-02 15:05:00,
2013-03-02 10:07:00,25.7,20.1,29.64,North,0,0.0,0.0,79,0.00,,,0.00,WUHU21623XXSP,2013-03-02 15:07:00,
2013-03-02 10:09:00,25.7,20.1,29.64,NW,315,0.0,0.0,79,0.00,,,0.00,WUHU21623XXSP,2013-03-02 15:09:00,
2013-03-02 10:10:00,25.9,19.9,29.64,NNW,337,0.0,0.0,78,0.00,,,0.00,WUHU21623XXSP,2013-03-02 15:10:00,
2013-03-02 10:12:00,25.9,19.9,29.64,NNW,337,0.0,0.0,78,0.00,,,0.00,WUHU21623XXSP,2013-03-02 15:12:00,
2013-03-02 10:14:00,25.7,19.8,29.64,NNW,337,0.0,0.0,78,0.00,,,0.00,WUHU21623XXSP,2013-03-02 15:14:00,
2013-03-02 10:15:00,25.9,19.9,29.64,NW,315,0.0,0.0,78,0.00,,,0.00,WUHU21623XXSP,2013-03-02 15:15:00,
2013-03-02 10:17:00,25.9,19.9,29.64,NW,315,0.0,0.0,78,0.00,,,0.00,WUHU21623XXSP,2013-03-02 15:17:00,
2013-03-02 10:19:00,26.1,20.1,29.64,NNW,337,0.0,0.0,78,0.00,,,0.00,WUHU21623XXSP,2013-03-02 15:19:00,
2013-03-02 10:20:00,26.1,20.1,29.64,NNW,337,0.0,0.0,78,0.00,,,0.00,WUHU21623XXSP,2013-03-02 15:20:00,
2013-03-02 10:22:00,26.1,20.1,29.64,NNW,337,0.0,0.0,78,0.00,,,0.00,WUHU21623XXSP,2013-03-02 15:22:00,
2013-03-02 10:25:00,26.2,19.9,29.64,NNW,337,0.0,0.0,77,0.00,,,0.00,WUHU21623XXSP,2013-03-02 15:25:00,
2013-03-02 10:26:00,26.2,19.9,29.65,NNW,337,0.0,0.0,77,0.00,,,0.00,WUHU21623XXSP,2013-03-02 15:26:00,
2013-03-02 10:28:00,26.2,19.9,29.65,North,0,0.0,0.0,77,0.00,,,0.00,WUHU21623XXSP,2013-03-02 15:28:00,
2013-03-02 10:30:00,26.2,19.9,29.64,North,0,0.0,0.0,77,0.00,,,0.00,WUHU21623XXSP,2013-03-02 15:30:00,
2013-03-02 10:31:00,26.2,19.9,29.64,North,0,0.0,0.0,77,0.00,,,0.00,WUHU21623XXSP,2013-03-02 15:31:00,
2013-03-02 10:33:00,26.2,19.9,29.64,North,0,0.0,0.0,77,0.00,,,0.00,WUHU21623XXSP,2013-03-02 15:33:00,
2013-03-02 10:34:00,26.4,19.9,29.65,North,0,0.0,0.0,77,0.00,,,0.00,WUHU21623XXSP,2013-03-02 15:34:00,
2013-03-02 10:35:00,26.4,19.9,29.65,North,0,0.0,0.0,77,0.00,,,0.00,WUHU21623XXSP,2013-03-02 15:35:00,
2013-03-02 10:36:00,26.4,20.1,29.65,NNW,337,0.0,0.0,77,0.00,,,0.00,WUHU21623XXSP,2013-03-02 15:36:00,
2013-03-02 10:38:00,26.4,20.1,29.65,NW,315,0.0,0.0,77,0.00,,,0.00,WUHU21623XXSP,2013-03-02 15:38:00,
2013-03-02 10:40:00,26.4,20.1,29.65,NW,315,0.0,0.0,77,0.00,,,0.00,WUHU21623XXSP,2013-03-02 15:40:00,
2013-03-02 10:41:00,26.8,20.5,29.64,NNE,22,0.0,0.0,77,0.00,,,0.00,WUHU21623XXSP,2013-03-02 15:41:00,
2013-03-02 10:44:00,26.8,20.5,29.65,NNE,22,0.0,0.0,77,0.00,,,0.00,WUHU21623XXSP,2013-03-02 15:44:00,
2013-03-02 10:45:00,26.8,20.2,29.65,NNW,337,0.0,0.0,76,0.00,,,0.00,WUHU21623XXSP,2013-03-02 15:45:00,
2013-03-02 10:46:00,26.8,20.2,29.65,NNW,337,0.0,0.0,76,0.00,,,0.00,WUHU21623XXSP,2013-03-02 15:46:00,
2013-03-02 10:49:00,26.8,20.2,29.65,NW,315,0.0,0.0,76,0.00,,,0.00,WUHU21623XXSP,2013-03-02 15:49:00,
2013-03-02 10:50:00,26.8,20.2,29.65,NNW,337,0.0,0.0,76,0.00,,,0.00,WUHU21623XXSP,2013-03-02 15:50:00,
2013-03-02 10:52:00,26.8,20.2,29.65,NNW,337,0.0,0.0,76,0.00,,,0.00,WUHU21623XXSP,2013-03-02 15:52:00,
2013-03-02 10:54:00,26.8,20.2,29.65,NW,315,0.0,0.0,76,0.00,,,0.00,WUHU21623XXSP,2013-03-02 15:54:00,
2013-03-02 10:55:00,26.8,20.2,29.65,NW,315,0.0,0.0,76,0.00,,,0.00,WUHU21623XXSP,2013-03-02 15:55:00,
2013-03-02 10:56:00,26.8,20.2,29.65,NNE,22,0.0,0.0,76,0.00,,,0.00,WUHU21623XXSP,2013-03-02 15:56:00,
2013-03-02 10:57:00,26.8,20.2,29.65,NNE,22,0.0,0.0,76,0.00,,,0.00,WUHU21623XXSP,2013-03-02 15:57:00,
2013-03-02 10:59:00,27.0,20.2,29.65,NNE,22,0.0,0.0,75,0.00,,,0.00,WUHU21623XXSP,2013-03-02 15:59:00,
2013-03-02 11:00:00,27.0,20.0,29.65,NE,45,0.0,0.0,75,0.00,,,0.00,WUHU21623XXSP,2013-03-02 16:00:00,
2013-03-02 11:01:00,27.0,20.0,29.65,NE,45,0.0,0.0,75,0.00,,,0.00,WUHU21623XXSP,2013-03-02 16:01:00,
2013-03-02 11:02:00,27.0,20.0,29.65,NE,45,0.0,0.0,75,0.00,,,0.00,WUHU21623XXSP,2013-03-02 16:02:00,
2013-03-02 11:04:00,27.1,20.2,29.65,NNW,337,0.0,0.0,75,0.00,,,0.00,WUHU21623XXSP,2013-03-02 16:04:00,
2013-03-02 11:06:00,27.1,20.2,29.65,NNW,337,0.0,0.0,75,0.00,,,0.00,WUHU21623XXSP,2013-03-02 16:06:00,
2013-03-02 11:07:00,27.1,20.2,29.65,NW,315,0.0,0.0,75,0.00,,,0.00,WUHU21623XXSP,2013-03-02 16:07:00,
2013-03-02 11:09:00,27.1,20.2,29.65,North,0,0.0,0.0,75,0.00,,,0.00,WUHU21623XXSP,2013-03-02 16:09:00,
2013-03-02 11:11:00,27.1,20.2,29.64,NNE,22,0.0,0.0,75,0.00,,,0.00,WUHU21623XXSP,2013-03-02 16:11:00,
2013-03-02 11:12:00,27.1,20.2,29.64,NNE,22,0.0,0.0,75,0.00,,,0.00,WUHU21623XXSP,2013-03-02 16:12:00,
2013-03-02 11:14:00,27.1,20.2,29.65,North,0,0.0,0.0,75,0.00,,,0.00,WUHU21623XXSP,2013-03-02 16:14:00,
2013-03-02 11:16:00,27.1,20.2,29.65,North,0,0.0,0.0,75,0.00,,,0.00,WUHU21623XXSP,2013-03-02 16:16:00,
2013-03-02 11:17:00,27.3,20.4,29.65,NNW,337,0.0,0.0,75,0.00,,,0.00,WUHU21623XXSP,2013-03-02 16:17:00,
2013-03-02 11:19:00,27.5,20.6,29.65,NNW,337,0.0,0.0,75,0.00,,,0.00,WUHU21623XXSP,2013-03-02 16:19:00,
2013-03-02 11:21:00,27.3,20.1,29.65,NNW,337,0.0,0.0,74,0.00,,,0.00,WUHU21623XXSP,2013-03-02 16:21:00,
2013-03-02 11:22:00,27.3,20.1,29.65,NNW,337,0.0,0.0,74,0.00,,,0.00,WUHU21623XXSP,2013-03-02 16:22:00,
2013-03-02 11:24:00,27.5,20.1,29.65,NNW,337,0.0,0.0,74,0.00,,,0.00,WUHU21623XXSP,2013-03-02 16:24:00,
2013-03-02 11:26:00,27.3,20.1,29.65,NNW,337,0.0,0.0,74,0.00,,,0.00,WUHU21623XXSP,2013-03-02 16:26:00,
2013-03-02 11:27:00,27.3,20.1,29.65,NNW,337,0.0,0.0,74,0.00,,,0.00,WUHU21623XXSP,2013-03-02 16:27:00,
2013-03-02 11:29:00,27.5,20.3,29.65,NNE,22,0.0,0.0,74,0.00,,,0.00,WUHU21623XXSP,2013-03-02 16:29:00,
2013-03-02 11:32:00,27.3,20.3,29.65,NNE,22,0.0,0.0,74,0.00,,,0.00,WUHU21623XXSP,2013-03-02 16:32:00,
2013-03-02 11:33:00,27.5,20.1,29.65,NNE,22,0.0,0.0,74,0.00,,,0.00,WUHU21623XXSP,2013-03-02 16:33:00,
2013-03-02 11:35:00,27.5,20.3,29.65,North,0,0.0,0.0,74,0.00,,,0.00,WUHU21623XXSP,2013-03-02 16:35:00,
2013-03-02 11:37:00,27.5,20.0,29.65,North,0,0.0,0.0,73,0.00,,,0.00,WUHU21623XXSP,2013-03-02 16:37:00,
2013-03-02 11:38:00,27.5,20.0,29.65,North,0,0.0,0.0,73,0.00,,,0.00,WUHU21623XXSP,2013-03-02 16:38:00,
2013-03-02 11:40:00,27.5,20.0,29.65,North,0,0.0,0.0,73,0.00,,,0.00,WUHU21623XXSP,2013-03-02 16:40:00,
2013-03-02 11:42:00,27.5,20.0,29.65,North,0,0.0,0.0,73,0.00,,,0.00,WUHU21623XXSP,2013-03-02 16:42:00,
2013-03-02 11:43:00,27.5,20.0,29.65,NNW,337,0.0,0.0,73,0.00,,,0.00,WUHU21623XXSP,2013-03-02 16:43:00,
2013-03-02 11:45:00,27.5,20.0,29.65,NNW,337,0.0,0.0,73,0.00,,,0.00,WUHU21623XXSP,2013-03-02 16:45:00,
2013-03-02 11:47:00,27.5,20.0,29.65,North,0,0.0,0.0,73,0.00,,,0.00,WUHU21623XXSP,2013-03-02 16:47:00,
2013-03-02 11:48:00,27.5,20.0,29.65,North,0,0.0,0.0,73,0.00,,,0.00,WUHU21623XXSP,2013-03-02 16:48:00,
2013-03-02 11:50:00,27.7,20.4,29.65,NNW,337,0.0,0.0,74,0.00,,,0.00,WUHU21623XXSP,2013-03-02 16:50:00,
2013-03-02 11:52:00,27.7,20.4,29.65,NNW,337,0.0,0.0,74,0.00,,,0.00,WUHU21623XXSP,2013-03-02 16:52:00,
2013-03-02 11:53:00,27.7,20.4,29.65,NNW,337,0.0,0.0,74,0.00,,,0.00,WUHU21623XXSP,2013-03-02 16:53:00,
2013-03-02 11:55:00,27.7,20.1,29.64,NW,315,0.0,0.0,73,0.00,,,0.00,WUHU21623XXSP,2013-03-02 16:55:00,
2013-03-02 11:57:00,27.7,20.1,29.64,NNW,337,0.0,0.0,73,0.00,,,0.00,WUHU21623XXSP,2013-03-02 16:57:00,
2013-03-02 11:58:00,27.7,20.1,29.64,NNW,337,0.0,0.0,73,0.00,,,0.00,WUHU21623XXSP,2013-03-02 16:58:00,
2013-03-02 12:00:00,27.7,20.1,29.65,NNW,337,0.0,0.0,73,0.00,,,0.00,WUHU21623XXSP,2013-03-02 17:00:00,
2013-03-02 12:03:00,27.7,20.1,29.64,NNW,337,0.0,0.0,73,0.00,,,0.00,WUHU21623XXSP,2013-03-02 17:03:00,
2013-03-02 12:04:00,27.7,20.1,29.64,NNW,337,0.0,0.0,73,0.00,,,0.00,WUHU21623XXSP,2013-03-02 17:04:00,
2013-03-02 12:06:00,27.7,20.1,29.64,North,0,0.0,0.0,73,0.00,,,0.00,WUHU21623XXSP,2013-03-02 17:06:00,
2013-03-02 12:08:00,27.7,20.1,29.64,North,0,0.0,0.0,73,0.00,,,0.00,WUHU21623XXSP,2013-03-02 17:08:00,
2013-03-02 12:09:00,27.7,20.1,29.64,North,0,0.0,0.0,73,0.00,,,0.00,WUHU21623XXSP,2013-03-02 17:09:00,
2013-03-02 12:11:00,27.7,20.1,29.64,North,0,0.0,0.0,73,0.00,,,0.00,WUHU21623XXSP,2013-03-02 17:11:00,
2013-03-02 12:13:00,28.0,20.5,29.64,NNW,337,0.0,0.0,73,0.00,,,0.00,WUHU21623XXSP,2013-03-02 17:13:00,
2013-03-02 12:14:00,28.0,20.5,29.64,NNW,337,0.0,0.0,73,0.00,,,0.00,WUHU21623XXSP,2013-03-02 17:14:00,
2013-03-02 12:16:00,28.0,20.5,29.64,NW,315,0.0,0.0,73,0.00,,,0.00,WUHU21623XXSP,2013-03-02 17:16:00,
2013-03-02 12:19:00,28.0,20.5,29.64,NNW,337,0.0,0.0,73,0.00,,,0.00,WUHU21623XXSP,2013-03-02 17:19:00,
2013-03-02 12:21:00,27.7,20.1,29.64,NW,315,0.0,0.0,73,0.00,,,0.00,WUHU21623XXSP,2013-03-02 17:21:00,
2013-03-02 12:24:00,27.7,20.1,29.64,NNW,337,0.0,0.0,73,0.00,,,0.00,WUHU21623XXSP,2013-03-02 17:24:00,
2013-03-02 12:27:00,27.7,20.1,29.64,NNW,337,0.0,0.0,73,0.00,,,0.00,WUHU21623XXSP,2013-03-02 17:27:00,
2013-03-02 12:29:00,27.7,20.1,29.64,NNW,337,0.0,0.0,73,0.00,,,0.00,WUHU21623XXSP,2013-03-02 17:29:00,
2013-03-02 12:30:00,27.9,20.3,29.64,North,0,0.0,0.0,73,0.00,,,0.00,WUHU21623XXSP,2013-03-02 17:30:00,
2013-03-02 12:32:00,28.0,20.5,29.64,North,0,0.0,0.0,73,0.00,,,0.00,WUHU21623XXSP,2013-03-02 17:32:00,
2013-03-02 12:34:00,27.7,20.5,29.64,North,0,0.0,0.0,73,0.00,,,0.00,WUHU21623XXSP,2013-03-02 17:34:00,
2013-03-02 12:35:00,27.7,20.5,29.64,North,0,0.0,0.0,73,0.00,,,0.00,WUHU21623XXSP,2013-03-02 17:35:00,
2013-03-02 12:37:00,27.7,20.1,29.64,NE,45,0.0,0.0,73,0.00,,,0.00,WUHU21623XXSP,2013-03-02 17:37:00,
2013-03-02 12:39:00,27.7,20.1,29.64,NW,315,0.0,0.0,73,0.00,,,0.00,WUHU21623XXSP,2013-03-02 17:39:00,
2013-03-02 12:40:00,27.7,20.1,29.64,NW,315,0.0,0.0,73,0.00,,,0.00,WUHU21623XXSP,2013-03-02 17:40:00,
2013-03-02 12:42:00,27.7,20.1,29.64,North,0,0.0,0.0,73,0.00,,,0.00,WUHU21623XXSP,2013-03-02 17:42:00,
2013-03-02 12:44:00,27.5,20.1,29.64,NW,315,0.0,0.0,73,0.00,,,0.00,WUHU21623XXSP,2013-03-02 17:44:00,
2013-03-02 12:45:00,27.5,20.0,29.64,North,0,0.0,0.0,73,0.00,,,0.00,WUHU21623XXSP,2013-03-02 17:45:00,
2013-03-02 12:47:00,27.5,20.0,29.64,NNW,337,0.0,0.0,73,0.00,,,0.00,WUHU21623XXSP,2013-03-02 17:47:00,
2013-03-02 12:50:00,27.3,20.0,29.64,NNW,337,0.0,0.0,73,0.00,,,0.00,WUHU21623XXSP,2013-03-02 17:50:00,
2013-03-02 12:51:00,27.3,20.0,29.64,NNW,337,0.0,0.0,73,0.00,,,0.00,WUHU21623XXSP,2013-03-02 17:51:00,
2013-03-02 12:53:00,27.3,19.8,29.64,NW,315,0.0,0.0,73,0.00,,,0.00,WUHU21623XXSP,2013-03-02 17:53:00,
2013-03-02 12:55:00,27.3,19.8,29.64,NW,315,0.0,0.0,73,0.00,,,0.00,WUHU21623XXSP,2013-03-02 17:55:00,
2013-03-02 12:56:00,27.3,19.8,29.64,NW,315,0.0,0.0,73,0.00,,,0.00,WUHU21623XXSP,2013-03-02 17:56:00,
2013-03-02 12:58:00,27.3,19.8,29.64,NNW,337,0.0,0.0,73,0.00,,,0.00,WUHU21623XXSP,2013-03-02 17:58:00,
2013-03-02 13:00:00,27.3,19.8,29.64,NNW,337,0.0,0.0,73,0.00,,,0.00,WUHU21623XXSP,2013-03-02 18:00:00,
2013-03-02 13:01:00,27.3,19.8,29.64,NNW,337,0.0,0.0,73,0.00,,,0.00,WUHU21623XXSP,2013-03-02 18:01:00,
2013-03-02 13:02:00,27.3,19.8,29.64,NNE,22,0.0,0.0,73,0.00,,,0.00,WUHU21623XXSP,2013-03-02 18:02:00,
2013-03-02 13:03:00,27.3,19.8,29.64,NNE,22,0.0,0.0,73,0.00,,,0.00,WUHU21623XXSP,2013-03-02 18:03:00,
2013-03-02 13:05:00,27.1,19.6,29.64,NNW,337,0.0,0.0,73,0.00,,,0.00,WUHU21623XXSP,2013-03-02 18:05:00,
2013-03-02 13:06:00,27.1,19.6,29.64,NNW,337,0.0,0.0,73,0.00,,,0.00,WUHU21623XXSP,2013-03-02 18:06:00,
2013-03-02 13:07:00,27.1,19.6,29.64,NNW,337,0.0,0.0,73,0.00,,,0.00,WUHU21623XXSP,2013-03-02 18:07:00,
2013-03-02 13:08:00,27.1,19.6,29.64,NNW,337,0.0,0.0,73,0.00,,,0.00,WUHU21623XXSP,2013-03-02 18:08:00,
2013-03-02 13:10:00,27.1,19.6,29.64,NW,315,0.0,0.0,73,0.00,,,0.00,WUHU21623XXSP,2013-03-02 18:10:00,
2013-03-02 13:11:00,27.1,19.6,29.64,NW,315,0.0,0.0,73,0.00,,,0.00,WUHU21623XXSP,2013-03-02 18:11:00,
2013-03-02 13:12:00,27.1,19.6,29.64,NW,315,0.0,0.0,73,0.00,,,0.00,WUHU21623XXSP,2013-03-02 18:12:00,
2013-03-02 13:13:00,27.1,19.6,29.64,NNW,337,0.0,0.0,73,0.00,,,0.00,WUHU21623XXSP,2013-03-02 18:13:00,
2013-03-02 13:15:00,27.1,19.6,29.64,NNW,337,0.0,0.0,73,0.00,,,0.00,WUHU21623XXSP,2013-03-02 18:15:00,
2013-03-02 13:16:00,27.1,19.6,29.64,NNW,337,0.0,0.0,73,0.00,,,0.00,WUHU21623XXSP,2013-03-02 18:16:00,
2013-03-02 13:17:00,27.1,19.6,29.63,NNW,337,0.0,0.0,73,0.00,,,0.00,WUHU21623XXSP,2013-03-02 18:17:00,
2013-03-02 13:19:00,27.1,19.6,29.63,North,0,0.0,0.0,73,0.00,,,0.00,WUHU21623XXSP,2013-03-02 18:19:00,
2013-03-02 13:20:00,27.1,19.6,29.63,North,0,0.0,0.0,73,0.00,,,0.00,WUHU21623XXSP,2013-03-02 18:20:00,
2013-03-02 13:21:00,27.1,19.6,29.63,North,0,0.0,0.0,73,0.00,,,0.00,WUHU21623XXSP,2013-03-02 18:21:00,
2013-03-02 13:22:00,27.0,19.4,29.64,NNW,337,0.0,0.0,73,0.00,,,0.00,WUHU21623XXSP,2013-03-02 18:22:00,
2013-03-02 13:24:00,27.0,19.4,29.63,NNE,22,0.0,0.0,73,0.00,,,0.00,WUHU21623XXSP,2013-03-02 18:24:00,
2013-03-02 13:25:00,27.0,19.4,29.63,North,0,0.0,0.0,73,0.00,,,0.00,WUHU21623XXSP,2013-03-02 18:25:00,
2013-03-02 13:26:00,27.0,19.4,29.63,North,0,0.0,0.0,73,0.00,,,0.00,WUHU21623XXSP,2013-03-02 18:26:00,
2013-03-02 13:27:00,27.1,19.4,29.63,North,0,0.0,0.0,73,0.00,,,0.00,WUHU21623XXSP,2013-03-02 18:27:00,
2013-03-02 13:29:00,27.1,19.4,29.63,North,0,0.0,0.0,73,0.00,,,0.00,WUHU21623XXSP,2013-03-02 18:29:00,
2013-03-02 13:30:00,27.1,19.6,29.63,NW,315,0.0,0.0,73,0.00,,,0.00,WUHU21623XXSP,2013-03-02 18:30:00,
2013-03-02 13:32:00,27.1,19.6,29.63,NW,315,0.0,0.0,73,0.00,,,0.00,WUHU21623XXSP,2013-03-02 18:32:00,
2013-03-02 13:35:00,27.1,19.6,29.63,NW,315,0.0,0.0,73,0.00,,,0.00,WUHU21623XXSP,2013-03-02 18:35:00,
2013-03-02 13:37:00,27.1,19.6,29.63,NW,315,0.0,0.0,73,0.00,,,0.00,WUHU21623XXSP,2013-03-02 18:37:00,
2013-03-02 13:40:00,27.0,19.4,29.63,North,0,0.0,0.0,73,0.00,,,0.00,WUHU21623XXSP,2013-03-02 18:40:00,
2013-03-02 13:42:00,27.0,19.4,29.63,NNW,337,0.0,0.0,73,0.00,,,0.00,WUHU21623XXSP,2013-03-02 18:42:00,
2013-03-02 13:45:00,27.0,19.4,29.63,NNW,337,0.0,0.0,73,0.00,,,0.00,WUHU21623XXSP,2013-03-02 18:45:00,
2013-03-02 13:46:00,27.0,19.4,29.63,NNW,337,0.0,0.0,73,0.00,,,0.00,WUHU21623XXSP,2013-03-02 18:46:00,
2013-03-02 13:47:00,27.0,19.7,29.63,NW,315,0.0,0.0,74,0.00,,,0.00,WUHU21623XXSP,2013-03-02 18:47:00,
2013-03-02 13:48:00,27.0,19.7,29.63,NW,315,0.0,0.0,74,0.00,,,0.00,WUHU21623XXSP,2013-03-02 18:48:00,
2013-03-02 13:51:00,27.0,19.7,29.63,North,0,0.0,0.0,74,0.00,,,0.00,WUHU21623XXSP,2013-03-02 18:51:00,
2013-03-02 13:53:00,27.0,19.7,29.63,NW,315,0.0,0.0,74,0.00,,,0.00,WUHU21623XXSP,2013-03-02 18:53:00,
2013-03-02 13:56:00,27.0,19.4,29.63,NW,315,0.0,0.0,73,0.00,,,0.00,WUHU21623XXSP,2013-03-02 18:56:00,
2013-03-02 13:58:00,27.0,19.7,29.63,NW,315,0.0,0.0,74,0.00,,,0.00,WUHU21623XXSP,2013-03-02 18:58:00,
2013-03-02 14:01:00,27.0,19.7,29.63,NW,315,0.0,0.0,74,0.00,,,0.00,WUHU21623XXSP,2013-03-02 19:01:00,
2013-03-02 14:03:00,27.0,19.7,29.63,NNW,337,0.0,0.0,74,0.00,,,0.00,WUHU21623XXSP,2013-03-02 19:03:00,
2013-03-02 14:04:00,27.0,19.7,29.63,NNW,337,0.0,0.0,74,0.00,,,0.00,WUHU21623XXSP,2013-03-02 19:04:00,
2013-03-02 14:06:00,27.1,19.9,29.63,NNW,337,0.0,0.0,74,0.00,,,0.00,WUHU21623XXSP,2013-03-02 19:06:00,
2013-03-02 14:07:00,27.1,19.9,29.63,NNW,337,0.0,0.0,74,0.00,,,0.00,WUHU21623XXSP,2013-03-02 19:07:00,
2013-03-02 14:08:00,27.1,19.9,29.62,NNW,337,0.0,0.0,74,0.00,,,0.00,WUHU21623XXSP,2013-03-02 19:08:00,
2013-03-02 14:09:00,27.1,19.9,29.62,NNW,337,0.0,0.0,74,0.00,,,0.00,WUHU21623XXSP,2013-03-02 19:09:00,
2013-03-02 14:12:00,27.1,19.9,29.63,NW,315,0.0,0.0,74,0.00,,,0.00,WUHU21623XXSP,2013-03-02 19:12:00,
2013-03-02 14:13:00,27.1,19.9,29.63,NNW,337,0.0,0.0,74,0.00,,,0.00,WUHU21623XXSP,2013-03-02 19:13:00,
2013-03-02 14:14:00,27.1,19.9,29.63,NNW,337,0.0,0.0,74,0.00,,,0.00,WUHU21623XXSP,2013-03-02 19:14:00,
2013-03-02 14:17:00,27.1,19.6,29.63,NW,315,0.0,0.0,73,0.00,,,0.00,WUHU21623XXSP,2013-03-02 19:17:00,
2013-03-02 14:18:00,27.1,19.6,29.63,NW,315,0.0,0.0,73,0.00,,,0.00,WUHU21623XXSP,2013-03-02 19:18:00,
2013-03-02 14:19:00,27.0,19.6,29.63,NW,315,0.0,0.0,74,0.00,,,0.00,WUHU21623XXSP,2013-03-02 19:19:00,
2013-03-02 14:23:00,27.0,19.7,29.62,NW,315,0.0,0.0,74,0.00,,,0.00,WUHU21623XXSP,2013-03-02 19:23:00,
2013-03-02 14:24:00,27.0,19.7,29.63,NNE,22,0.0,0.0,74,0.00,,,0.00,WUHU21623XXSP,2013-03-02 19:24:00,
2013-03-02 14:25:00,27.0,19.4,29.63,NNW,337,0.0,0.0,73,0.00,,,0.00,WUHU21623XXSP,2013-03-02 19:25:00,
2013-03-02 14:28:00,27.0,19.4,29.63,NW,315,0.0,0.0,73,0.00,,,0.00,WUHU21623XXSP,2013-03-02 19:28:00,
2013-03-02 14:29:00,27.0,19.4,29.63,NW,315,0.0,0.0,73,0.00,,,0.00,WUHU21623XXSP,2013-03-02 19:29:00,
2013-03-02 14:30:00,27.0,19.7,29.62,NNW,337,0.0,0.0,74,0.00,,,0.00,WUHU21623XXSP,2013-03-02 19:30:00,
2013-03-02 14:33:00,27.1,19.9,29.62,NNW,337,0.0,0.0,74,0.00,,,0.00,WUHU21623XXSP,2013-03-02 19:33:00,
2013-03-02 14:34:00,27.1,19.9,29.62,NNW,337,0.0,0.0,73,0.00,,,0.00,WUHU21623XXSP,2013-03-02 19:34:00,
2013-03-02 14:35:00,27.1,19.9,29.62,NNW,337,0.0,0.0,73,0.00,,,0.00,WUHU21623XXSP,2013-03-02 19:35:00,
2013-03-02 14:39:00,27.1,19.6,29.62,NNW,337,0.0,0.0,73,0.00,,,0.00,WUHU21623XXSP,2013-03-02 19:39:00,
2013-03-02 14:40:00,27.1,19.6,29.62,NNW,337,0.0,0.0,73,0.00,,,0.00,WUHU21623XXSP,2013-03-02 19:40:00,
2013-03-02 14:41:00,27.1,19.6,29.62,NNW,337,0.0,0.0,73,0.00,,,0.00,WUHU21623XXSP,2013-03-02 19:41:00,
2013-03-02 14:44:00,27.0,19.4,29.62,NNW,337,0.0,0.0,73,0.00,,,0.00,WUHU21623XXSP,2013-03-02 19:44:00,
2013-03-02 14:45:00,27.0,19.4,29.63,NNW,337,0.0,0.0,73,0.00,,,0.00,WUHU21623XXSP,2013-03-02 19:45:00,
2013-03-02 14:46:00,27.0,19.4,29.63,NNW,337,0.0,0.0,73,0.00,,,0.00,WUHU21623XXSP,2013-03-02 19:46:00,
2013-03-02 14:49:00,27.0,19.4,29.62,NNW,337,0.0,0.0,73,0.00,,,0.00,WUHU21623XXSP,2013-03-02 19:49:00,
2013-03-02 14:50:00,26.8,19.2,29.63,NNW,337,0.0,0.0,73,0.00,,,0.00,WUHU21623XXSP,2013-03-02 19:50:00,
2013-03-02 14:51:00,26.8,19.2,29.63,NNW,337,0.0,0.0,73,0.00,,,0.00,WUHU21623XXSP,2013-03-02 19:51:00,
2013-03-02 14:54:00,26.8,19.5,29.63,NNW,337,0.0,0.0,74,0.00,,,0.00,WUHU21623XXSP,2013-03-02 19:54:00,
2013-03-02 14:55:00,26.8,19.2,29.62,NW,315,0.0,0.0,73,0.00,,,0.00,WUHU21623XXSP,2013-03-02 19:55:00,
2013-03-02 14:56:00,26.8,19.2,29.62,NW,315,0.0,0.0,73,0.00,,,0.00,WUHU21623XXSP,2013-03-02 19:56:00,
2013-03-02 14:59:00,27.0,19.4,29.63,NNE,22,0.0,0.0,73,0.00,,,0.00,WUHU21623XXSP,2013-03-02 19:59:00,
2013-03-02 15:00:00,26.8,19.2,29.62,North,0,0.0,0.0,73,0.00,,,0.00,WUHU21623XXSP,2013-03-02 20:00:00,
2013-03-02 15:01:00,26.8,19.2,29.62,North,0,0.0,0.0,73,0.00,,,0.00,WUHU21623XXSP,2013-03-02 20:01:00,
2013-03-02 15:04:00,27.0,19.4,29.62,NW,315,0.0,0.0,73,0.00,,,0.00,WUHU21623XXSP,2013-03-02 20:04:00,
2013-03-02 15:05:00,27.0,19.4,29.62,NW,315,0.0,0.0,73,0.00,,,0.00,WUHU21623XXSP,2013-03-02 20:05:00,
2013-03-02 15:06:00,27.0,19.4,29.62,NNW,337,0.0,0.0,73,0.00,,,0.00,WUHU21623XXSP,2013-03-02 20:06:00,
2013-03-02 15:09:00,27.0,19.4,29.62,NNE,22,0.0,0.0,73,0.00,,,0.00,WUHU21623XXSP,2013-03-02 20:09:00,
2013-03-02 15:10:00,27.0,19.4,29.62,NNE,22,0.0,0.0,73,0.00,,,0.00,WUHU21623XXSP,2013-03-02 20:10:00,
2013-03-02 15:11:00,26.8,19.2,29.62,North,0,0.0,0.0,73,0.00,,,0.00,WUHU21623XXSP,2013-03-02 20:11:00,
2013-03-02 15:14:00,26.8,19.2,29.62,NNW,337,0.0,0.0,73,0.00,,,0.00,WUHU21623XXSP,2013-03-02 20:14:00,
2013-03-02 15:15:00,26.8,19.2,29.62,NNW,337,0.0,0.0,73,0.00,,,0.00,WUHU21623XXSP,2013-03-02 20:15:00,
2013-03-02 15:16:00,26.8,19.2,29.62,NNW,337,0.0,0.0,73,0.00,,,0.00,WUHU21623XXSP,2013-03-02 20:16:00,
2013-03-02 15:19:00,26.8,19.2,29.62,North,0,0.0,0.0,73,0.00,,,0.00,WUHU21623XXSP,2013-03-02 20:19:00,
2013-03-02 15:20:00,26.8,19.2,29.62,North,0,0.0,0.0,73,0.00,,,0.00,WUHU21623XXSP,2013-03-02 20:20:00,
2013-03-02 15:21:00,26.8,19.2,29.62,North,0,0.0,0.0,73,0.00,,,0.00,WUHU21623XXSP,2013-03-02 20:21:00,
2013-03-02 15:24:00,26.8,19.2,29.62,NNW,337,0.0,0.0,73,0.00,,,0.00,WUHU21623XXSP,2013-03-02 20:24:00,
2013-03-02 15:26:00,26.8,19.5,29.62,NNW,337,0.0,0.0,74,0.00,,,0.00,WUHU21623XXSP,2013-03-02 20:26:00,
2013-03-02 15:29:00,26.8,19.5,29.62,NNW,337,0.0,0.0,74,0.00,,,0.00,WUHU21623XXSP,2013-03-02 20:29:00,
2013-03-02 15:31:00,26.8,19.5,29.62,NW,315,0.0,0.0,74,0.00,,,0.00,WUHU21623XXSP,2013-03-02 20:31:00,
2013-03-02 15:32:00,26.8,19.5,29.62,NE,45,0.0,0.0,74,0.00,,,0.00,WUHU21623XXSP,2013-03-02 20:32:00,
2013-03-02 15:34:00,26.8,19.5,29.62,NNE,22,0.0,0.0,74,0.00,,,0.00,WUHU21623XXSP,2013-03-02 20:34:00,
2013-03-02 15:36:00,26.8,19.5,29.62,North,0,0.0,0.0,74,0.00,,,0.00,WUHU21623XXSP,2013-03-02 20:36:00,
2013-03-02 15:37:00,26.8,19.5,29.62,North,0,0.0,0.0,74,0.00,,,0.00,WUHU21623XXSP,2013-03-02 20:37:00,
2013-03-02 15:39:00,26.8,19.5,29.62,NNW,337,0.0,0.0,74,0.00,,,0.00,WUHU21623XXSP,2013-03-02 20:39:00,
2013-03-02 15:41:00,26.8,19.5,29.63,NNW,337,0.0,0.0,74,0.00,,,0.00,WUHU21623XXSP,2013-03-02 20:41:00,
2013-03-02 15:42:00,26.8,19.5,29.63,NNW,337,0.0,0.0,74,0.00,,,0.00,WUHU21623XXSP,2013-03-02 20:42:00,
2013-03-02 15:44:00,26.8,19.5,29.62,NNW,337,0.0,0.0,74,0.00,,,0.00,WUHU21623XXSP,2013-03-02 20:44:00,
2013-03-02 15:46:00,26.8,19.5,29.62,NW,315,0.0,0.0,74,0.00,,,0.00,WUHU21623XXSP,2013-03-02 20:46:00,
2013-03-02 15:47:00,26.8,19.5,29.62,NW,315,0.0,0.0,74,0.00,,,0.00,WUHU21623XXSP,2013-03-02 20:47:00,
2013-03-02 15:50:00,26.6,19.1,29.63,North,0,0.0,0.0,73,0.00,,,0.00,WUHU21623XXSP,2013-03-02 20:50:00,
2013-03-02 15:52:00,26.6,19.4,29.63,NW,315,0.0,0.0,74,0.00,,,0.00,WUHU21623XXSP,2013-03-02 20:52:00,
2013-03-02 15:53:00,26.6,19.4,29.63,NW,315,0.0,0.0,74,0.00,,,0.00,WUHU21623XXSP,2013-03-02 20:53:00,
2013-03-02 15:55:00,26.6,19.4,29.63,North,0,0.0,0.0,74,0.00,,,0.00,WUHU21623XXSP,2013-03-02 20:55:00,
2013-03-02 15:57:00,26.4,19.2,29.62,NNW,337,0.0,0.0,74,0.00,,,0.00,WUHU21623XXSP,2013-03-02 20:57:00,
2013-03-02 15:58:00,26.4,19.2,29.62,NNE,22,0.0,0.0,74,0.00,,,0.00,WUHU21623XXSP,2013-03-02 20:58:00,
2013-03-02 16:00:00,26.4,19.2,29.63,NNE,22,0.0,0.0,74,0.00,,,0.00,WUHU21623XXSP,2013-03-02 21:00:00,
2013-03-02 16:02:00,26.4,19.2,29.62,NNW,337,0.0,0.0,74,0.00,,,0.00,WUHU21623XXSP,2013-03-02 21:02:00,
2013-03-02 16:03:00,26.4,19.2,29.62,NNW,337,0.0,0.0,74,0.00,,,0.00,WUHU21623XXSP,2013-03-02 21:03:00,
2013-03-02 16:05:00,26.4,19.2,29.63,NNW,337,0.0,0.0,74,0.00,,,0.00,WUHU21623XXSP,2013-03-02 21:05:00,
2013-03-02 16:07:00,26.4,19.2,29.62,NNW,337,0.0,0.0,74,0.00,,,0.00,WUHU21623XXSP,2013-03-02 21:07:00,
2013-03-02 16:08:00,26.4,19.2,29.62,NNW,337,0.0,0.0,74,0.00,,,0.00,WUHU21623XXSP,2013-03-02 21:08:00,
2013-03-02 16:10:00,26.4,18.9,29.63,NNW,337,0.0,0.0,73,0.00,,,0.00,WUHU21623XXSP,2013-03-02 21:10:00,
2013-03-02 16:12:00,26.4,19.2,29.62,NNW,337,0.0,0.0,74,0.00,,,0.00,WUHU21623XXSP,2013-03-02 21:12:00,
2013-03-02 16:13:00,26.4,19.2,29.62,NNW,337,0.0,0.0,74,0.00,,,0.00,WUHU21623XXSP,2013-03-02 21:13:00,
2013-03-02 16:15:00,26.4,19.2,29.63,NNW,337,0.0,0.0,74,0.00,,,0.00,WUHU21623XXSP,2013-03-02 21:15:00,
2013-03-02 16:17:00,26.4,19.2,29.63,NNE,22,0.0,0.0,74,0.00,,,0.00,WUHU21623XXSP,2013-03-02 21:17:00,
2013-03-02 16:18:00,26.4,19.2,29.63,NNE,22,0.0,0.0,74,0.00,,,0.00,WUHU21623XXSP,2013-03-02 21:18:00,
2013-03-02 16:19:00,26.4,19.2,29.63,NNE,22,0.0,0.0,74,0.00,,,0.00,WUHU21623XXSP,2013-03-02 21:19:00,
2013-03-02 16:21:00,26.4,18.9,29.63,NNW,337,0.0,0.0,73,0.00,,,0.00,WUHU21623XXSP,2013-03-02 21:21:00,
2013-03-02 16:23:00,26.4,19.2,29.62,NNW,337,0.0,0.0,74,0.00,,,0.00,WUHU21623XXSP,2013-03-02 21:23:00,
2013-03-02 16:24:00,26.4,18.9,29.63,NNW,337,0.0,0.0,73,0.00,,,0.00,WUHU21623XXSP,2013-03-02 21:24:00,
2013-03-02 16:26:00,26.4,18.9,29.63,NNW,337,0.0,0.0,73,0.00,,,0.00,WUHU21623XXSP,2013-03-02 21:26:00,
2013-03-02 16:28:00,26.4,18.9,29.63,NW,315,0.0,0.0,73,0.00,,,0.00,WUHU21623XXSP,2013-03-02 21:28:00,
2013-03-02 16:29:00,26.4,18.9,29.63,NW,315,0.0,0.0,73,0.00,,,0.00,WUHU21623XXSP,2013-03-02 21:29:00,
2013-03-02 16:31:00,26.4,19.2,29.63,NNW,337,0.0,0.0,74,0.00,,,0.00,WUHU21623XXSP,2013-03-02 21:31:00,
2013-03-02 16:34:00,26.4,19.2,29.63,NNW,337,0.0,0.0,74,0.00,,,0.00,WUHU21623XXSP,2013-03-02 21:34:00,
2013-03-02 16:35:00,26.4,19.2,29.63,NW,315,0.0,0.0,74,0.00,,,0.00,WUHU21623XXSP,2013-03-02 21:35:00,
2013-03-02 16:37:00,26.4,19.2,29.63,NNW,337,0.0,0.0,74,0.00,,,0.00,WUHU21623XXSP,2013-03-02 21:37:00,
2013-03-02 16:39:00,26.4,19.2,29.63,NW,315,0.0,0.0,74,0.00,,,0.00,WUHU21623XXSP,2013-03-02 21:39:00,
2013-03-02 16:40:00,26.4,19.2,29.63,NW,315,0.0,0.0,74,0.00,,,0.00,WUHU21623XXSP,2013-03-02 21:40:00,
2013-03-02 16:42:00,26.4,19.2,29.63,NNW,337,0.0,0.0,74,0.00,,,0.00,WUHU21623XXSP,2013-03-02 21:42:00,
2013-03-02 16:44:00,26.4,19.2,29.63,NW,315,0.0,0.0,74,0.00,,,0.00,WUHU21623XXSP,2013-03-02 21:44:00,
2013-03-02 16:45:00,26.2,19.0,29.63,NW,315,0.0,0.0,74,0.00,,,0.00,WUHU21623XXSP,2013-03-02 21:45:00,
2013-03-02 16:47:00,26.2,19.0,29.63,North,0,0.0,0.0,74,0.00,,,0.00,WUHU21623XXSP,2013-03-02 21:47:00,
2013-03-02 16:49:00,26.2,19.0,29.63,North,0,0.0,0.0,74,0.00,,,0.00,WUHU21623XXSP,2013-03-02 21:49:00,
2013-03-02 16:50:00,26.2,19.0,29.63,North,0,0.0,0.0,74,0.00,,,0.00,WUHU21623XXSP,2013-03-02 21:50:00,
2013-03-02 16:52:00,26.2,19.0,29.63,NNW,337,0.0,0.0,74,0.00,,,0.00,WUHU21623XXSP,2013-03-02 21:52:00,
2013-03-02 16:54:00,26.2,19.0,29.63,North,0,0.0,0.0,74,0.00,,,0.00,WUHU21623XXSP,2013-03-02 21:54:00,
2013-03-02 16:55:00,26.2,19.0,29.63,North,0,0.0,0.0,74,0.00,,,0.00,WUHU21623XXSP,2013-03-02 21:55:00,
2013-03-02 16:58:00,26.2,18.7,29.63,NW,315,0.0,0.0,73,0.00,,,0.00,WUHU21623XXSP,2013-03-02 21:58:00,
2013-03-02 16:59:00,26.2,18.7,29.63,NW,315,0.0,0.0,73,0.00,,,0.00,WUHU21623XXSP,2013-03-02 21:59:00,
2013-03-02 17:00:00,26.1,18.8,29.63,NNE,22,0.0,0.0,74,0.00,,,0.00,WUHU21623XXSP,2013-03-02 22:00:00,
2013-03-02 17:03:00,26.1,18.8,29.63,NNW,337,0.0,0.0,74,0.00,,,0.00,WUHU21623XXSP,2013-03-02 22:03:00,
2013-03-02 17:04:00,26.2,19.0,29.63,NW,315,0.0,0.0,74,0.00,,,0.00,WUHU21623XXSP,2013-03-02 22:04:00,
2013-03-02 17:05:00,26.2,19.0,29.63,NW,315,0.0,0.0,74,0.00,,,0.00,WUHU21623XXSP,2013-03-02 22:05:00,
2013-03-02 17:08:00,26.1,18.8,29.63,NNW,337,0.0,0.0,74,0.00,,,0.00,WUHU21623XXSP,2013-03-02 22:08:00,
2013-03-02 17:09:00,26.1,18.8,29.63,NNE,22,0.0,0.0,74,0.00,,,0.00,WUHU21623XXSP,2013-03-02 22:09:00,
2013-03-02 17:10:00,26.1,18.8,29.63,North,0,0.0,0.0,74,0.00,,,0.00,WUHU21623XXSP,2013-03-02 22:10:00,
2013-03-02 17:13:00,25.9,18.7,29.63,North,0,0.0,0.0,74,0.00,,,0.00,WUHU21623XXSP,2013-03-02 22:13:00,
2013-03-02 17:15:00,26.1,18.8,29.63,North,0,0.0,0.0,74,0.00,,,0.00,WUHU21623XXSP,2013-03-02 22:15:00,
2013-03-02 17:16:00,26.1,18.8,29.63,North,0,0.0,0.0,74,0.00,,,0.00,WUHU21623XXSP,2013-03-02 22:16:00,
2013-03-02 17:18:00,25.9,18.7,29.63,NNW,337,0.0,0.0,74,0.00,,,0.00,WUHU21623XXSP,2013-03-02 22:18:00,
2013-03-02 17:20:00,25.9,18.7,29.63,NNW,337,0.0,0.0,74,0.00,,,0.00,WUHU21623XXSP,2013-03-02 22:20:00,
2013-03-02 17:21:00,25.9,18.7,29.63,NNW,337,0.0,0.0,74,0.00,,,0.00,WUHU21623XXSP,2013-03-02 22:21:00,
2013-03-02 17:24:00,26.1,18.8,29.63,NNW,337,0.0,0.0,74,0.00,,,0.00,WUHU21623XXSP,2013-03-02 22:24:00,
2013-03-02 17:25:00,26.1,18.8,29.63,NNW,337,0.0,0.0,74,0.00,,,0.00,WUHU21623XXSP,2013-03-02 22:25:00,
2013-03-02 17:26:00,25.9,18.7,29.63,NNW,337,0.0,0.0,74,0.00,,,0.00,WUHU21623XXSP,2013-03-02 22:26:00,
2013-03-02 17:29:00,25.9,18.7,29.63,NNW,337,0.0,0.0,74,0.00,,,0.00,WUHU21623XXSP,2013-03-02 22:29:00,
2013-03-02 17:30:00,25.9,18.7,29.63,NW,315,0.0,0.0,74,0.00,,,0.00,WUHU21623XXSP,2013-03-02 22:30:00,
2013-03-02 17:31:00,25.9,18.7,29.63,NW,315,0.0,0.0,74,0.00,,,0.00,WUHU21623XXSP,2013-03-02 22:31:00,
2013-03-02 17:34:00,25.9,18.7,29.63,NW,315,0.0,0.0,74,0.00,,,0.00,WUHU21623XXSP,2013-03-02 22:34:00,
2013-03-02 17:35:00,25.9,18.7,29.63,NW,315,0.0,0.0,74,0.00,,,0.00,WUHU21623XXSP,2013-03-02 22:35:00,
2013-03-02 17:36:00,25.7,18.8,29.63,NW,315,0.0,0.0,75,0.00,,,0.00,WUHU21623XXSP,2013-03-02 22:36:00,
2013-03-02 17:39:00,25.9,19.0,29.63,NNW,337,0.0,0.0,75,0.00,,,0.00,WUHU21623XXSP,2013-03-02 22:39:00,
2013-03-02 17:40:00,25.9,19.0,29.63,NNW,337,0.0,0.0,75,0.00,,,0.00,WUHU21623XXSP,2013-03-02 22:40:00,
2013-03-02 17:41:00,25.7,18.8,29.63,NNW,337,0.0,0.0,75,0.00,,,0.00,WUHU21623XXSP,2013-03-02 22:41:00,
2013-03-02 17:44:00,25.7,18.8,29.63,NNE,22,0.0,0.0,75,0.00,,,0.00,WUHU21623XXSP,2013-03-02 22:44:00,
2013-03-02 17:46:00,25.7,18.8,29.63,NNW,337,0.0,0.0,75,0.00,,,0.00,WUHU21623XXSP,2013-03-02 22:46:00,
2013-03-02 17:47:00,25.7,18.5,29.64,NW,315,0.0,0.0,74,0.00,,,0.00,WUHU21623XXSP,2013-03-02 22:47:00,
2013-03-02 17:49:00,25.7,18.5,29.64,NW,315,0.0,0.0,74,0.00,,,0.00,WUHU21623XXSP,2013-03-02 22:49:00,
2013-03-02 17:50:00,25.7,18.5,29.64,NW,315,0.0,0.0,74,0.00,,,0.00,WUHU21623XXSP,2013-03-02 22:50:00,
2013-03-02 17:52:00,25.5,18.3,29.64,NW,315,0.0,0.0,74,0.00,,,0.00,WUHU21623XXSP,2013-03-02 22:52:00,
2013-03-02 17:54:00,25.5,18.6,29.64,NNW,337,0.0,0.0,75,0.00,,,0.00,WUHU21623XXSP,2013-03-02 22:54:00,
2013-03-02 17:56:00,25.5,18.6,29.64,North,0,0.0,0.0,75,0.00,,,0.00,WUHU21623XXSP,2013-03-02 22:56:00,
2013-03-02 17:57:00,25.5,18.6,29.64,North,0,0.0,0.0,75,0.00,,,0.00,WUHU21623XXSP,2013-03-02 22:57:00,
2013-03-02 17:59:00,25.5,18.6,29.64,NNE,22,0.0,0.0,75,0.00,,,0.00,WUHU21623XXSP,2013-03-02 22:59:00,
2013-03-02 18:01:00,25.5,18.6,29.64,NNE,22,0.0,0.0,75,0.00,,,0.00,WUHU21623XXSP,2013-03-02 23:01:00,
2013-03-02 18:02:00,25.5,18.3,29.64,NNE,22,0.0,0.0,74,0.00,,,0.00,WUHU21623XXSP,2013-03-02 23:02:00,
2013-03-02 18:04:00,25.5,18.3,29.64,NNE,22,0.0,0.0,74,0.00,,,0.00,WUHU21623XXSP,2013-03-02 23:04:00,
2013-03-02 18:06:00,25.5,18.3,29.64,NW,315,0.0,0.0,74,0.00,,,0.00,WUHU21623XXSP,2013-03-02 23:06:00,
2013-03-02 18:07:00,25.5,18.3,29.64,NW,315,0.0,0.0,74,0.00,,,0.00,WUHU21623XXSP,2013-03-02 23:07:00,
2013-03-02 18:10:00,25.5,18.3,29.64,NNW,337,0.0,0.0,74,0.00,,,0.00,WUHU21623XXSP,2013-03-02 23:10:00,
2013-03-02 18:12:00,25.5,18.3,29.64,North,0,0.0,0.0,74,0.00,,,0.00,WUHU21623XXSP,2013-03-02 23:12:00,
2013-03-02 18:15:00,25.5,18.6,29.64,NW,315,0.0,0.0,75,0.00,,,0.00,WUHU21623XXSP,2013-03-02 23:15:00,
2013-03-02 18:17:00,25.5,18.6,29.64,NW,315,0.0,0.0,75,0.00,,,0.00,WUHU21623XXSP,2013-03-02 23:17:00,
2013-03-02 18:18:00,25.5,18.6,29.64,NW,315,0.0,0.0,75,0.00,,,0.00,WUHU21623XXSP,2013-03-02 23:18:00,
2013-03-02 18:20:00,25.5,18.6,29.64,NW,315,0.0,0.0,75,0.00,,,0.00,WUHU21623XXSP,2013-03-02 23:20:00,
2013-03-02 18:22:00,25.5,18.6,29.64,NNW,337,0.0,0.0,75,0.00,,,0.00,WUHU21623XXSP,2013-03-02 23:22:00,
2013-03-02 18:23:00,25.5,18.6,29.64,NNW,337,0.0,0.0,75,0.00,,,0.00,WUHU21623XXSP,2013-03-02 23:23:00,
2013-03-02 18:25:00,25.3,18.5,29.65,NNW,337,0.0,0.0,75,0.00,,,0.00,WUHU21623XXSP,2013-03-02 23:25:00,
2013-03-02 18:27:00,25.3,18.5,29.64,NNW,337,0.0,0.0,75,0.00,,,0.00,WUHU21623XXSP,2013-03-02 23:27:00,
2013-03-02 18:28:00,25.3,18.5,29.64,NNW,337,0.0,0.0,75,0.00,,,0.00,WUHU21623XXSP,2013-03-02 23:28:00,
2013-03-02 18:30:00,25.3,18.5,29.64,NNW,337,0.0,0.0,75,0.00,,,0.00,WUHU21623XXSP,2013-03-02 23:30:00,
2013-03-02 18:32:00,25.3,18.5,29.65,NNW,337,0.0,0.0,75,0.00,,,0.00,WUHU21623XXSP,2013-03-02 23:32:00,
2013-03-02 18:33:00,25.3,18.5,29.65,NNW,337,0.0,0.0,75,0.00,,,0.00,WUHU21623XXSP,2013-03-02 23:33:00,
2013-03-02 18:35:00,25.3,18.5,29.65,NW,315,0.0,0.0,75,0.00,,,0.00,WUHU21623XXSP,2013-03-02 23:35:00,
2013-03-02 18:37:00,25.3,18.5,29.65,North,0,0.0,0.0,75,0.00,,,0.00,WUHU21623XXSP,2013-03-02 23:37:00,
2013-03-02 18:38:00,25.3,18.5,29.65,NNW,337,0.0,0.0,75,0.00,,,0.00,WUHU21623XXSP,2013-03-02 23:38:00,
2013-03-02 18:40:00,25.2,18.3,29.65,NNW,337,0.0,0.0,75,0.00,,,0.00,WUHU21623XXSP,2013-03-02 23:40:00,
2013-03-02 18:43:00,25.2,18.3,29.65,North,0,0.0,0.0,75,0.00,,,0.00,WUHU21623XXSP,2013-03-02 23:43:00,
2013-03-02 18:45:00,25.2,18.3,29.65,NNW,337,0.0,0.0,75,0.00,,,0.00,WUHU21623XXSP,2013-03-02 23:45:00,
2013-03-02 18:48:00,25.2,18.3,29.65,NW,315,0.0,0.0,75,0.00,,,0.00,WUHU21623XXSP,2013-03-02 23:48:00,
2013-03-02 18:50:00,25.2,18.3,29.65,NNW,337,0.0,0.0,75,0.00,,,0.00,WUHU21623XXSP,2013-03-02 23:50:00,
2013-03-02 18:53:00,25.0,18.1,29.65,NNW,337,0.0,0.0,75,0.00,,,0.00,WUHU21623XXSP,2013-03-02 23:53:00,
2013-03-02 18:54:00,25.0,18.1,29.65,NNW,337,0.0,0.0,75,0.00,,,0.00,WUHU21623XXSP,2013-03-02 23:54:00,
2013-03-02 18:56:00,25.0,18.1,29.65,NNW,337,0.0,0.0,75,0.00,,,0.00,WUHU21623XXSP,2013-03-02 23:56:00,
2013-03-02 18:58:00,25.0,18.1,29.65,NW,315,0.0,0.0,75,0.00,,,0.00,WUHU21623XXSP,2013-03-02 23:58:00,
2013-03-02 18:59:00,25.0,18.1,29.65,NW,315,0.0,0.0,75,0.00,,,0.00,WUHU21623XXSP,2013-03-02 23:59:00,
2013-03-02 19:01:00,25.0,18.1,29.65,NW,315,0.0,0.0,75,0.00,,,0.00,WUHU21623XXSP,2013-03-03 00:01:00,
2013-03-02 19:03:00,25.0,18.1,29.65,NW,315,0.0,0.0,75,0.00,,,0.00,WUHU21623XXSP,2013-03-03 00:03:00,
2013-03-02 19:04:00,25.0,18.4,29.65,NNW,337,0.0,0.0,76,0.00,,,0.00,WUHU21623XXSP,2013-03-03 00:04:00,
2013-03-02 19:06:00,25.0,18.4,29.65,NNW,337,0.0,0.0,76,0.00,,,0.00,WUHU21623XXSP,2013-03-03 00:06:00,
2013-03-02 19:08:00,25.0,18.1,29.65,NNW,337,0.0,0.0,75,0.00,,,0.00,WUHU21623XXSP,2013-03-03 00:08:00,
2013-03-02 19:09:00,25.0,18.1,29.65,NNW,337,0.0,0.0,75,0.00,,,0.00,WUHU21623XXSP,2013-03-03 00:09:00,
2013-03-02 19:11:00,25.0,18.1,29.65,NW,315,0.0,0.0,75,0.00,,,0.00,WUHU21623XXSP,2013-03-03 00:11:00,
2013-03-02 19:13:00,25.0,18.4,29.66,NW,315,0.0,0.0,76,0.00,,,0.00,WUHU21623XXSP,2013-03-03 00:13:00,
2013-03-02 19:14:00,25.0,18.4,29.66,NNW,337,0.0,0.0,76,0.00,,,0.00,WUHU21623XXSP,2013-03-03 00:14:00,
2013-03-02 19:16:00,25.0,18.4,29.66,NNW,337,0.0,0.0,76,0.00,,,0.00,WUHU21623XXSP,2013-03-03 00:16:00,
2013-03-02 19:19:00,25.0,18.1,29.66,NW,315,0.0,0.0,75,0.00,,,0.00,WUHU21623XXSP,2013-03-03 00:19:00,
2013-03-02 19:20:00,25.0,18.1,29.66,NW,315,0.0,0.0,75,0.00,,,0.00,WUHU21623XXSP,2013-03-03 00:20:00,
2013-03-02 19:21:00,25.0,18.1,29.66,NNW,337,0.0,0.0,75,0.00,,,0.00,WUHU21623XXSP,2013-03-03 00:21:00,
2013-03-02 19:24:00,25.0,18.4,29.66,NNW,337,0.0,0.0,76,0.00,,,0.00,WUHU21623XXSP,2013-03-03 00:24:00,
2013-03-02 19:25:00,25.0,18.1,29.66,NNW,337,0.0,0.0,75,0.00,,,0.00,WUHU21623XXSP,2013-03-03 00:25:00,
2013-03-02 19:27:00,25.0,18.1,29.66,NNW,337,0.0,0.0,75,0.00,,,0.00,WUHU21623XXSP,2013-03-03 00:27:00,
2013-03-02 19:29:00,25.0,18.1,29.65,NW,315,0.0,0.0,75,0.00,,,0.00,WUHU21623XXSP,2013-03-03 00:29:00,
2013-03-02 19:30:00,24.8,18.0,29.65,NW,315,0.0,0.0,75,0.00,,,0.00,WUHU21623XXSP,2013-03-03 00:30:00,
2013-03-02 19:32:00,24.6,17.8,29.65,NNW,337,0.0,0.0,75,0.00,,,0.00,WUHU21623XXSP,2013-03-03 00:32:00,
2013-03-02 19:35:00,24.6,17.8,29.65,NW,315,0.0,0.0,75,0.00,,,0.00,WUHU21623XXSP,2013-03-03 00:35:00,
2013-03-02 19:37:00,24.6,17.8,29.65,NNW,337,0.0,0.0,75,0.00,,,0.00,WUHU21623XXSP,2013-03-03 00:37:00,
2013-03-02 19:40:00,24.6,17.8,29.65,NW,315,0.0,0.0,75,0.00,,,0.00,WUHU21623XXSP,2013-03-03 00:40:00,
2013-03-02 19:41:00,24.6,17.8,29.65,NNW,337,0.0,0.0,75,0.00,,,0.00,WUHU21623XXSP,2013-03-03 00:41:00,
2013-03-02 19:42:00,24.6,17.8,29.65,NNW,337,0.0,0.0,75,0.00,,,0.00,WUHU21623XXSP,2013-03-03 00:42:00,
2013-03-02 19:45:00,24.6,17.8,29.65,NW,315,0.0,0.0,75,0.00,,,0.00,WUHU21623XXSP,2013-03-03 00:45:00,
2013-03-02 19:46:00,24.6,17.8,29.65,NW,315,0.0,0.0,75,0.00,,,0.00,WUHU21623XXSP,2013-03-03 00:46:00,
2013-03-02 19:47:00,24.6,17.8,29.65,NNW,337,0.0,0.0,75,0.00,,,0.00,WUHU21623XXSP,2013-03-03 00:47:00,
2013-03-02 19:50:00,24.6,17.8,29.65,NNW,337,0.0,0.0,75,0.00,,,0.00,WUHU21623XXSP,2013-03-03 00:50:00,
2013-03-02 19:51:00,24.6,17.8,29.65,NNW,337,0.0,0.0,75,0.00,,,0.00,WUHU21623XXSP,2013-03-03 00:51:00,
2013-03-02 19:52:00,24.6,17.8,29.65,NNW,337,0.0,0.0,75,0.00,,,0.00,WUHU21623XXSP,2013-03-03 00:52:00,
2013-03-02 19:55:00,24.6,17.8,29.65,North,0,0.0,0.0,75,0.00,,,0.00,WUHU21623XXSP,2013-03-03 00:55:00,
2013-03-02 19:56:00,24.6,17.8,29.65,North,0,0.0,0.0,75,0.00,,,0.00,WUHU21623XXSP,2013-03-03 00:56:00,
2013-03-02 19:57:00,24.6,17.8,29.65,NNW,337,0.0,0.0,75,0.00,,,0.00,WUHU21623XXSP,2013-03-03 00:57:00,
2013-03-02 20:00:00,24.6,17.8,29.65,NW,315,0.0,0.0,75,0.00,,,0.00,WUHU21623XXSP,2013-03-03 01:00:00,
2013-03-02 20:01:00,24.6,17.8,29.65,NW,315,0.0,0.0,75,0.00,,,0.00,WUHU21623XXSP,2013-03-03 01:01:00,
2013-03-02 20:02:00,24.6,18.1,29.65,NW,315,0.0,0.0,76,0.00,,,0.00,WUHU21623XXSP,2013-03-03 01:02:00,
2013-03-02 20:06:00,24.6,18.1,29.65,NNW,337,0.0,0.0,76,0.00,,,0.00,WUHU21623XXSP,2013-03-03 01:06:00,
2013-03-02 20:08:00,24.6,18.1,29.65,NNW,337,0.0,0.0,76,0.00,,,0.00,WUHU21623XXSP,2013-03-03 01:08:00,
2013-03-02 20:11:00,24.6,18.1,29.65,NW,315,0.0,0.0,76,0.00,,,0.00,WUHU21623XXSP,2013-03-03 01:11:00,
2013-03-02 20:13:00,24.6,18.4,29.65,NNW,337,0.0,0.0,77,0.00,,,0.00,WUHU21623XXSP,2013-03-03 01:13:00,
2013-03-02 20:16:00,24.6,18.4,29.65,North,0,0.0,0.0,77,0.00,,,0.00,WUHU21623XXSP,2013-03-03 01:16:00,
2013-03-02 20:18:00,24.6,18.4,29.65,North,0,0.0,0.0,77,0.00,,,0.00,WUHU21623XXSP,2013-03-03 01:18:00,
2013-03-02 20:21:00,24.6,18.1,29.65,NNW,337,0.0,0.0,76,0.00,,,0.00,WUHU21623XXSP,2013-03-03 01:21:00,
2013-03-02 20:22:00,24.6,18.1,29.65,NNW,337,0.0,0.0,76,0.00,,,0.00,WUHU21623XXSP,2013-03-03 01:22:00,
2013-03-02 20:23:00,24.4,17.9,29.65,NW,315,0.0,0.0,76,0.00,,,0.00,WUHU21623XXSP,2013-03-03 01:23:00,
2013-03-02 20:26:00,24.4,17.9,29.65,NNW,337,0.0,0.0,76,0.00,,,0.00,WUHU21623XXSP,2013-03-03 01:26:00,
2013-03-02 20:27:00,24.4,17.9,29.65,NNW,337,0.0,0.0,76,0.00,,,0.00,WUHU21623XXSP,2013-03-03 01:27:00,
2013-03-02 20:28:00,24.4,17.9,29.65,North,0,0.0,0.0,76,0.00,,,0.00,WUHU21623XXSP,2013-03-03 01:28:00,
2013-03-02 20:31:00,24.4,17.9,29.65,NW,315,0.0,0.0,76,0.00,,,0.00,WUHU21623XXSP,2013-03-03 01:31:00,
2013-03-02 20:32:00,24.4,17.9,29.65,North,0,0.0,0.0,76,0.00,,,0.00,WUHU21623XXSP,2013-03-03 01:32:00,
2013-03-02 20:33:00,24.4,17.9,29.65,North,0,0.0,0.0,76,0.00,,,0.00,WUHU21623XXSP,2013-03-03 01:33:00,
2013-03-02 20:37:00,24.4,17.9,29.65,NNE,22,0.0,0.0,76,0.00,,,0.00,WUHU21623XXSP,2013-03-03 01:37:00,
2013-03-02 20:39:00,24.4,17.6,29.65,NNW,337,0.0,0.0,75,0.00,,,0.00,WUHU21623XXSP,2013-03-03 01:39:00,
2013-03-02 20:42:00,24.4,17.6,29.65,NNW,337,0.0,0.0,75,0.00,,,0.00,WUHU21623XXSP,2013-03-03 01:42:00,
2013-03-02 20:44:00,24.4,17.6,29.65,NW,315,0.0,0.0,75,0.00,,,0.00,WUHU21623XXSP,2013-03-03 01:44:00,
2013-03-02 20:47:00,24.4,17.6,29.65,NNW,337,0.0,0.0,75,0.00,,,0.00,WUHU21623XXSP,2013-03-03 01:47:00,
2013-03-02 20:49:00,24.4,17.6,29.65,NNW,337,0.0,0.0,75,0.00,,,0.00,WUHU21623XXSP,2013-03-03 01:49:00,
2013-03-02 20:52:00,24.1,17.6,29.65,NNW,337,0.0,0.0,75,0.00,,,0.00,WUHU21623XXSP,2013-03-03 01:52:00,
2013-03-02 20:53:00,24.1,17.6,29.65,NNW,337,0.0,0.0,75,0.00,,,0.00,WUHU21623XXSP,2013-03-03 01:53:00,
2013-03-02 20:54:00,24.1,17.3,29.65,NW,315,0.0,0.0,75,0.00,,,0.00,WUHU21623XXSP,2013-03-03 01:54:00,
2013-03-02 20:57:00,24.1,17.3,29.65,NW,315,0.0,0.0,75,0.00,,,0.00,WUHU21623XXSP,2013-03-03 01:57:00,
2013-03-02 20:58:00,24.1,17.6,29.65,NNW,337,0.0,0.0,76,0.00,,,0.00,WUHU21623XXSP,2013-03-03 01:58:00,
2013-03-02 20:59:00,24.1,17.6,29.65,NNW,337,0.0,0.0,76,0.00,,,0.00,WUHU21623XXSP,2013-03-03 01:59:00,
2013-03-02 21:02:00,24.1,17.6,29.65,NW,315,0.0,0.0,76,0.00,,,0.00,WUHU21623XXSP,2013-03-03 02:02:00,
2013-03-02 21:03:00,24.1,17.6,29.65,NW,315,0.0,0.0,76,0.00,,,0.00,WUHU21623XXSP,2013-03-03 02:03:00,
2013-03-02 21:04:00,24.1,17.6,29.65,NW,315,0.0,0.0,76,0.00,,,0.00,WUHU21623XXSP,2013-03-03 02:04:00,
2013-03-02 21:07:00,24.1,17.6,29.65,NW,315,0.0,0.0,76,0.00,,,0.00,WUHU21623XXSP,2013-03-03 02:07:00,
2013-03-02 21:08:00,24.1,17.6,29.65,NW,315,0.0,0.0,76,0.00,,,0.00,WUHU21623XXSP,2013-03-03 02:08:00,
2013-03-02 21:09:00,24.1,17.6,29.65,NW,315,0.0,0.0,76,0.00,,,0.00,WUHU21623XXSP,2013-03-03 02:09:00,
2013-03-02 21:12:00,24.1,17.6,29.65,NNW,337,0.0,0.0,76,0.00,,,0.00,WUHU21623XXSP,2013-03-03 02:12:00,
2013-03-02 21:13:00,24.1,17.6,29.65,NNW,337,0.0,0.0,76,0.00,,,0.00,WUHU21623XXSP,2013-03-03 02:13:00,
2013-03-02 21:14:00,24.1,17.6,29.65,NNW,337,0.0,0.0,76,0.00,,,0.00,WUHU21623XXSP,2013-03-03 02:14:00,
2013-03-02 21:17:00,24.1,17.6,29.65,NW,315,0.0,0.0,76,0.00,,,0.00,WUHU21623XXSP,2013-03-03 02:17:00,
2013-03-02 21:18:00,24.1,17.6,29.65,NW,315,0.0,0.0,76,0.00,,,0.00,WUHU21623XXSP,2013-03-03 02:18:00,
2013-03-02 21:19:00,24.1,17.6,29.65,NNW,337,0.0,0.0,76,0.00,,,0.00,WUHU21623XXSP,2013-03-03 02:19:00,
2013-03-02 21:22:00,24.1,17.6,29.65,NW,315,0.0,0.0,76,0.00,,,0.00,WUHU21623XXSP,2013-03-03 02:22:00,
2013-03-02 21:23:00,24.1,17.6,29.65,NW,315,0.0,0.0,76,0.00,,,0.00,WUHU21623XXSP,2013-03-03 02:23:00,
2013-03-02 21:24:00,24.1,17.6,29.65,NNW,337,0.0,0.0,76,0.00,,,0.00,WUHU21623XXSP,2013-03-03 02:24:00,
2013-03-02 21:27:00,24.1,17.6,29.65,NW,315,0.0,0.0,76,0.00,,,0.00,WUHU21623XXSP,2013-03-03 02:27:00,
2013-03-02 21:28:00,24.1,17.6,29.65,NW,315,0.0,0.0,76,0.00,,,0.00,WUHU21623XXSP,2013-03-03 02:28:00,
2013-03-02 21:29:00,24.1,17.6,29.65,NW,315,0.0,0.0,76,0.00,,,0.00,WUHU21623XXSP,2013-03-03 02:29:00,
2013-03-02 21:30:00,24.1,17.6,29.65,NW,315,0.0,0.0,76,0.00,,,0.00,WUHU21623XXSP,2013-03-03 02:30:00,
2013-03-02 21:33:00,24.1,17.3,29.65,NNW,337,0.0,0.0,75,0.00,,,0.00,WUHU21623XXSP,2013-03-03 02:33:00,
2013-03-02 21:34:00,24.1,17.3,29.65,NNW,337,0.0,0.0,76,0.00,,,0.00,WUHU21623XXSP,2013-03-03 02:34:00,
2013-03-02 21:35:00,24.1,17.3,29.65,NNW,337,0.0,0.0,76,0.00,,,0.00,WUHU21623XXSP,2013-03-03 02:35:00,
2013-03-02 21:38:00,24.1,17.3,29.65,NW,315,0.0,0.0,75,0.00,,,0.00,WUHU21623XXSP,2013-03-03 02:38:00,
2013-03-02 21:39:00,24.1,17.3,29.65,NNW,337,0.0,0.0,75,0.00,,,0.00,WUHU21623XXSP,2013-03-03 02:39:00,
2013-03-02 21:40:00,24.1,17.3,29.65,NW,315,0.0,0.0,75,0.00,,,0.00,WUHU21623XXSP,2013-03-03 02:40:00,
2013-03-02 21:43:00,24.1,17.3,29.65,NW,315,0.0,0.0,75,0.00,,,0.00,WUHU21623XXSP,2013-03-03 02:43:00,
2013-03-02 21:44:00,24.1,17.3,29.65,NW,315,0.0,0.0,75,0.00,,,0.00,WUHU21623XXSP,2013-03-03 02:44:00,
2013-03-02 21:45:00,24.1,17.6,29.65,NW,315,0.0,0.0,76,0.00,,,0.00,WUHU21623XXSP,2013-03-03 02:45:00,
2013-03-02 21:48:00,24.1,17.6,29.65,NW,315,0.0,0.0,76,0.00,,,0.00,WUHU21623XXSP,2013-03-03 02:48:00,
2013-03-02 21:49:00,24.1,17.6,29.65,NW,315,0.0,0.0,76,0.00,,,0.00,WUHU21623XXSP,2013-03-03 02:49:00,
2013-03-02 21:51:00,24.1,17.6,29.65,NW,315,0.0,0.0,76,0.00,,,0.00,WUHU21623XXSP,2013-03-03 02:51:00,
2013-03-02 21:53:00,24.1,17.6,29.65,NW,315,0.0,0.0,76,0.00,,,0.00,WUHU21623XXSP,2013-03-03 02:53:00,
2013-03-02 21:54:00,24.1,17.6,29.65,NW,315,0.0,0.0,76,0.00,,,0.00,WUHU21623XXSP,2013-03-03 02:54:00,
2013-03-02 21:56:00,24.1,17.6,29.65,NW,315,0.0,0.0,76,0.00,,,0.00,WUHU21623XXSP,2013-03-03 02:56:00,
2013-03-02 21:58:00,23.9,17.4,29.65,NW,315,0.0,0.0,76,0.00,,,0.00,WUHU21623XXSP,2013-03-03 02:58:00,
2013-03-02 21:59:00,23.9,17.4,29.65,NW,315,0.0,0.0,76,0.00,,,0.00,WUHU21623XXSP,2013-03-03 02:59:00,
2013-03-02 22:01:00,23.9,17.4,29.65,NW,315,0.0,0.0,76,0.00,,,0.00,WUHU21623XXSP,2013-03-03 03:01:00,
2013-03-02 22:03:00,23.9,17.4,29.65,NW,315,0.0,0.0,76,0.00,,,0.00,WUHU21623XXSP,2013-03-03 03:03:00,
2013-03-02 22:04:00,23.9,17.4,29.65,NW,315,0.0,0.0,76,0.00,,,0.00,WUHU21623XXSP,2013-03-03 03:04:00,
2013-03-02 22:05:00,23.9,17.4,29.65,NW,315,0.0,0.0,76,0.00,,,0.00,WUHU21623XXSP,2013-03-03 03:05:00,
2013-03-02 22:06:00,23.9,17.4,29.65,NW,315,0.0,0.0,76,0.00,,,0.00,WUHU21623XXSP,2013-03-03 03:06:00,
2013-03-02 22:08:00,23.9,17.4,29.65,NW,315,0.0,0.0,76,0.00,,,0.00,WUHU21623XXSP,2013-03-03 03:08:00,
2013-03-02 22:10:00,23.9,17.4,29.65,NW,315,0.0,0.0,76,0.00,,,0.00,WUHU21623XXSP,2013-03-03 03:10:00,
2013-03-02 22:11:00,23.9,17.4,29.65,WNW,292,0.0,0.0,76,0.00,,,0.00,WUHU21623XXSP,2013-03-03 03:11:00,
2013-03-02 22:13:00,23.9,17.4,29.65,NW,315,0.0,0.0,76,0.00,,,0.00,WUHU21623XXSP,2013-03-03 03:13:00,
2013-03-02 22:14:00,23.9,17.4,29.65,NW,315,0.0,0.0,76,0.00,,,0.00,WUHU21623XXSP,2013-03-03 03:14:00,
2013-03-02 22:15:00,23.9,17.4,29.65,WNW,292,0.0,0.0,76,0.00,,,0.00,WUHU21623XXSP,2013-03-03 03:15:00,
2013-03-02 22:16:00,23.9,17.4,29.65,WNW,292,0.0,0.0,76,0.00,,,0.00,WUHU21623XXSP,2013-03-03 03:16:00,
2013-03-02 22:18:00,23.9,17.4,29.65,WNW,292,0.0,0.0,76,0.00,,,0.00,WUHU21623XXSP,2013-03-03 03:18:00,
2013-03-02 22:20:00,23.9,17.4,29.65,NW,315,0.0,0.0,76,0.00,,,0.00,WUHU21623XXSP,2013-03-03 03:20:00,
2013-03-02 22:21:00,23.9,17.4,29.65,NNW,337,0.0,0.0,76,0.00,,,0.00,WUHU21623XXSP,2013-03-03 03:21:00,
2013-03-02 22:24:00,23.9,17.4,29.65,NNW,337,0.0,0.0,76,0.00,,,0.00,WUHU21623XXSP,2013-03-03 03:24:00,
2013-03-02 22:25:00,23.9,17.4,29.65,NNW,337,0.0,0.0,76,0.00,,,0.00,WUHU21623XXSP,2013-03-03 03:25:00,
2013-03-02 22:27:00,23.9,17.4,29.65,NW,315,0.0,0.0,76,0.00,,,0.00,WUHU21623XXSP,2013-03-03 03:27:00,
2013-03-02 22:29:00,23.9,17.4,29.65,WNW,292,0.0,0.0,76,0.00,,,0.00,WUHU21623XXSP,2013-03-03 03:29:00,
2013-03-02 22:30:00,23.9,17.4,29.65,NW,315,0.0,0.0,76,0.00,,,0.00,WUHU21623XXSP,2013-03-03 03:30:00,
2013-03-02 22:32:00,23.9,17.4,29.65,NNW,337,0.0,0.0,76,0.00,,,0.00,WUHU21623XXSP,2013-03-03 03:32:00,
2013-03-02 22:35:00,23.9,17.4,29.65,NNW,337,0.0,0.0,76,0.00,,,0.00,WUHU21623XXSP,2013-03-03 03:35:00,
2013-03-02 22:37:00,23.9,17.4,29.65,NNW,337,0.0,0.0,76,0.00,,,0.00,WUHU21623XXSP,2013-03-03 03:37:00,
2013-03-02 22:40:00,23.9,17.4,29.65,NW,315,0.0,0.0,76,0.00,,,0.00,WUHU21623XXSP,2013-03-03 03:40:00,
2013-03-02 22:42:00,23.9,17.4,29.65,NW,315,0.0,0.0,76,0.00,,,0.00,WUHU21623XXSP,2013-03-03 03:42:00,
2013-03-02 22:45:00,23.9,17.4,29.65,WNW,292,0.0,0.0,76,0.00,,,0.00,WUHU21623XXSP,2013-03-03 03:45:00,
2013-03-02 22:46:00,23.9,17.4,29.65,WNW,292,0.0,0.0,76,0.00,,,0.00,WUHU21623XXSP,2013-03-03 03:46:00,
2013-03-02 22:47:00,23.9,17.4,29.65,WNW,292,0.0,0.0,76,0.00,,,0.00,WUHU21623XXSP,2013-03-03 03:47:00,
2013-03-02 22:50:00,23.9,17.4,29.65,NW,315,0.0,0.0,76,0.00,,,0.00,WUHU21623XXSP,2013-03-03 03:50:00,
2013-03-02 22:51:00,23.9,17.4,29.65,NW,315,0.0,0.0,76,0.00,,,0.00,WUHU21623XXSP,2013-03-03 03:51:00,
2013-03-02 22:53:00,23.9,17.4,29.65,NW,315,0.0,0.0,76,0.00,,,0.00,WUHU21623XXSP,2013-03-03 03:53:00,
2013-03-02 22:55:00,23.7,17.2,29.65,NW,315,0.0,0.0,76,0.00,,,0.00,WUHU21623XXSP,2013-03-03 03:55:00,
2013-03-02 22:56:00,23.7,17.2,29.65,NW,315,0.0,0.0,76,0.00,,,0.00,WUHU21623XXSP,2013-03-03 03:56:00,
2013-03-02 22:58:00,23.9,17.4,29.65,NW,315,0.0,0.0,76,0.00,,,0.00,WUHU21623XXSP,2013-03-03 03:58:00,
2013-03-02 23:01:00,23.9,17.4,29.65,NW,315,0.0,0.0,76,0.00,,,0.00,WUHU21623XXSP,2013-03-03 04:01:00,
2013-03-02 23:02:00,23.7,17.4,29.65,NW,315,0.0,0.0,76,0.00,,,0.00,WUHU21623XXSP,2013-03-03 04:02:00,
2013-03-02 23:03:00,23.7,17.4,29.65,NW,315,0.0,0.0,76,0.00,,,0.00,WUHU21623XXSP,2013-03-03 04:03:00,
2013-03-02 23:06:00,23.7,17.2,29.65,West,270,0.0,0.0,76,0.00,,,0.00,WUHU21623XXSP,2013-03-03 04:06:00,
2013-03-02 23:07:00,23.7,17.2,29.65,West,270,0.0,0.0,76,0.00,,,0.00,WUHU21623XXSP,2013-03-03 04:07:00,
2013-03-02 23:09:00,23.7,17.2,29.65,NW,315,0.0,0.0,76,0.00,,,0.00,WUHU21623XXSP,2013-03-03 04:09:00,
2013-03-02 23:11:00,23.7,17.2,29.64,WNW,292,0.0,0.0,76,0.00,,,0.00,WUHU21623XXSP,2013-03-03 04:11:00,
2013-03-02 23:12:00,23.7,17.2,29.64,WNW,292,0.0,0.0,76,0.00,,,0.00,WUHU21623XXSP,2013-03-03 04:12:00,
2013-03-02 23:14:00,23.7,17.2,29.64,NW,315,0.0,0.0,76,0.00,,,0.00,WUHU21623XXSP,2013-03-03 04:14:00,
2013-03-02 23:16:00,23.7,17.2,29.65,NW,315,0.0,0.0,76,0.00,,,0.00,WUHU21623XXSP,2013-03-03 04:16:00,
2013-03-02 23:17:00,23.7,17.2,29.64,NW,315,0.0,0.0,76,0.00,,,0.00,WUHU21623XXSP,2013-03-03 04:17:00,
2013-03-02 23:18:00,23.7,17.2,29.64,NW,315,0.0,0.0,76,0.00,,,0.00,WUHU21623XXSP,2013-03-03 04:18:00,
2013-03-02 23:19:00,23.7,17.2,29.64,NW,315,0.0,0.0,76,0.00,,,0.00,WUHU21623XXSP,2013-03-03 04:19:00,
2013-03-02 23:21:00,23.7,17.2,29.64,NW,315,0.0,0.0,76,0.00,,,0.00,WUHU21623XXSP,2013-03-03 04:21:00,
2013-03-02 23:22:00,23.7,17.2,29.64,NW,315,0.0,0.0,76,0.00,,,0.00,WUHU21623XXSP,2013-03-03 04:22:00,
2013-03-02 23:23:00,23.7,16.9,29.64,NW,315,0.0,0.0,75,0.00,,,0.00,WUHU21623XXSP,2013-03-03 04:23:00,
2013-03-02 23:25:00,23.7,16.9,29.64,NW,315,0.0,0.0,75,0.00,,,0.00,WUHU21623XXSP,2013-03-03 04:25:00,
2013-03-02 23:26:00,23.7,17.2,29.64,NW,315,0.0,0.0,76,0.00,,,0.00,WUHU21623XXSP,2013-03-03 04:26:00,
2013-03-02 23:27:00,23.5,17.1,29.64,NW,315,0.0,0.0,76,0.00,,,0.00,WUHU21623XXSP,2013-03-03 04:27:00,
2013-03-02 23:28:00,23.5,17.1,29.64,NW,315,0.0,0.0,76,0.00,,,0.00,WUHU21623XXSP,2013-03-03 04:28:00,
2013-03-02 23:30:00,23.7,17.2,29.64,NNE,22,0.0,0.0,76,0.00,,,0.00,WUHU21623XXSP,2013-03-03 04:30:00,
2013-03-02 23:32:00,23.5,17.1,29.64,NW,315,0.0,0.0,76,0.00,,,0.00,WUHU21623XXSP,2013-03-03 04:32:00,
2013-03-02 23:34:00,23.5,17.1,29.64,NW,315,0.0,0.0,76,0.00,,,0.00,WUHU21623XXSP,2013-03-03 04:34:00,
2013-03-02 23:35:00,23.5,17.1,29.64,NW,315,0.0,0.0,76,0.00,,,0.00,WUHU21623XXSP,2013-03-03 04:35:00,
2013-03-02 23:37:00,23.5,17.1,29.64,WNW,292,0.0,0.0,76,0.00,,,0.00,WUHU21623XXSP,2013-03-03 04:37:00,
2013-03-02 23:38:00,23.5,17.1,29.64,WNW,292,0.0,0.0,76,0.00,,,0.00,WUHU21623XXSP,2013-03-03 04:38:00,
2013-03-02 23:39:00,23.7,17.2,29.64,NW,315,0.0,0.0,76,0.00,,,0.00,WUHU21623XXSP,2013-03-03 04:39:00,
2013-03-02 23:40:00,23.5,17.1,29.64,NW,315,0.0,0.0,76,0.00,,,0.00,WUHU21623XXSP,2013-03-03 04:40:00,
2013-03-02 23:42:00,23.7,17.2,29.64,WNW,292,0.0,0.0,76,0.00,,,0.00,WUHU21623XXSP,2013-03-03 04:42:00,
2013-03-02 23:43:00,23.7,17.2,29.64,WNW,292,0.0,0.0,76,0.00,,,0.00,WUHU21623XXSP,2013-03-03 04:43:00,
2013-03-02 23:44:00,23.7,17.2,29.64,WNW,292,0.0,0.0,76,0.00,,,0.00,WUHU21623XXSP,2013-03-03 04:44:00,
2013-03-02 23:46:00,23.5,17.1,29.64,WNW,292,0.0,0.0,76,0.00,,,0.00,WUHU21623XXSP,2013-03-03 04:46:00,
2013-03-02 23:48:00,23.5,17.1,29.64,WNW,292,0.0,0.0,76,0.00,,,0.00,WUHU21623XXSP,2013-03-03 04:48:00,
2013-03-02 23:49:00,23.5,17.1,29.64,WNW,292,0.0,0.0,76,0.00,,,0.00,WUHU21623XXSP,2013-03-03 04:49:00,
2013-03-02 23:51:00,23.5,17.1,29.64,WNW,292,0.0,0.0,76,0.00,,,0.00,WUHU21623XXSP,2013-03-03 04:51:00,
2013-03-02 23:53:00,23.5,17.1,29.64,WNW,292,0.0,0.0,76,0.00,,,0.00,WUHU21623XXSP,2013-03-03 04:53:00,
2013-03-02 23:54:00,23.5,17.1,29.64,WNW,292,0.0,0.0,76,0.00,,,0.00,WUHU21623XXSP,2013-03-03 04:54:00,
2013-03-02 23:56:00,23.5,17.1,29.64,WNW,292,0.0,0.0,76,0.00,,,0.00,WUHU21623XXSP,2013-03-03 04:56:00,
2013-03-02 23:58:00,23.5,17.1,29.64,WNW,292,0.0,0.0,76,0.00,,,0.00,WUHU21623XXSP,2013-03-03 04:58:00,
2013-03-02 23:59:00,23.5,17.1,29.63,WNW,292,0.0,0.0,76,0.00,,,0.00,WUHU21623XXSP,2013-03-03 04:59:00,